GFSNIL_sfc_wetblb_000.txt.gz
Wetbulb
44.80 44.43 44.25 42.89 42.03 39.68 41.11 40.30 40.29 39.18 39.75 40.79 40.97 40.39 40.68 41.09 40.57 39.47 36.88 36.65 37.08 37.96
40.35 40.50 38.17 37.54 38.68 39.42 39.40 39.99 39.74 40.71 41.52 42.31 42.82 42.13 40.21 37.94 37.66 38.35 37.73 37.20 36.70 37.28
37.93 38.23 38.13 38.06 37.43 37.59 38.85 40.90 41.67 42.34 42.46 42.94 41.33 40.01 38.94 37.92 36.67 36.16 36.52 37.02 35.97 36.75
37.22 37.65 36.91 36.59 36.85 37.28 38.34 39.59 40.36 40.33 39.64 39.47 39.10 38.55 37.01 35.81 35.70 35.02 34.88 34.57 34.64 34.67
36.43 35.44 35.04 35.59 36.26 36.93 37.20 38.40 37.99 37.77 37.62 37.61 37.09 36.64 35.41 34.31 34.12 32.56 31.86 32.33 32.36 33.08
34.40 33.79 34.41 34.64 35.30 36.33 36.88 36.61 36.57 36.40 36.00 36.57 36.29 35.07 34.16 33.13 32.54 32.37 32.34 31.95 31.36 31.62
33.25 33.59 34.04 34.10 34.98 35.97 36.02 35.60 35.18 35.83 35.99 35.67 34.57 33.53 32.77 32.32 30.68 29.40 29.59 29.43 29.36 29.57
36.35 36.07 35.58 34.86 35.34 37.31 36.87 35.81 35.21 34.30 33.27 32.16 32.07 32.68 30.57 29.42 28.15 27.44 27.48 28.17 28.27 28.80
39.35 38.94 38.01 38.08 38.57 37.51 35.53 34.13 32.33 30.97 30.26 29.34 31.29 33.59 33.28 31.64 27.64 27.74 27.07 26.15 26.93 27.48
40.32 39.43 38.34 38.35 37.07 33.96 31.36 29.60 28.83 28.32 27.87 27.49 27.88 32.72 32.61 32.05 28.13 27.14 26.67 26.12 25.98 26.31
38.44 36.92 35.20 32.76 31.14 28.99 28.48 27.55 26.87 26.79 27.22 26.92 28.07 31.55 31.20 30.92 27.58 26.52 26.66 26.77 26.75 26.19
32.82 32.34 31.54 29.45 27.21 27.18 25.99 25.59 25.43 26.30 26.15 26.72 26.59 30.02 29.76 28.71 24.27 24.93 25.84 27.64 27.77 28.00
33.02 31.26 29.25 27.77 26.83 25.98 24.47 24.93 26.00 26.79 25.91 26.76 23.64 27.63 28.31 27.65 26.35 24.54 24.28 25.35 26.23 28.22
31.38 30.10 28.75 26.54 25.37 24.16 23.82 23.66 18.18 17.39 20.05 22.60 24.19 23.73 27.83 28.33 25.98 25.01 24.80 24.88 25.41 26.29

GFSNIL_sfc_wetblb_003.txt.gz
Wetbulb
41.75 41.66 42.45 41.31 40.35 39.01 37.47 36.64 38.16 39.46 41.53 41.97 41.56 42.27 42.83 42.40 41.35 40.85 39.58 38.92 37.19 35.17
39.71 39.55 39.94 37.64 37.16 36.72 36.99 38.87 39.66 40.93 41.66 41.73 41.64 41.83 42.42 41.04 39.47 38.66 38.28 37.31 35.83 34.35
39.16 37.81 37.45 36.66 36.35 36.48 37.82 40.00 41.06 41.64 41.89 41.51 41.93 41.45 40.91 38.84 38.26 37.18 36.96 37.06 35.23 34.51
38.65 36.59 35.74 35.35 35.88 36.71 38.72 39.57 38.84 38.65 39.79 39.85 39.18 38.93 37.87 36.64 35.85 35.12 34.41 34.02 34.04 33.21
37.08 35.45 33.98 34.48 35.58 36.55 37.30 38.08 37.49 37.08 37.34 37.42 36.85 36.08 34.88 33.70 33.73 32.43 31.40 31.94 31.27 31.26
33.64 32.50 32.89 34.67 36.32 36.80 36.71 36.70 36.61 36.07 35.00 35.27 35.09 34.06 33.10 32.17 31.97 31.32 31.14 30.84 30.53 30.72
31.74 32.13 32.74 33.80 35.20 36.08 37.07 35.86 35.53 35.39 35.25 34.85 33.39 32.40 32.00 31.04 28.99 27.86 28.43 28.81 28.52 28.07
36.28 36.05 34.78 37.33 38.07 37.58 37.29 37.34 35.81 34.48 32.61 31.72 31.24 31.53 29.40 28.73 28.08 27.60 27.28 27.73 27.81 27.81
39.93 39.72 39.14 38.87 38.79 37.73 37.96 37.13 33.23 31.02 30.06 29.10 30.57 33.56 32.95 31.59 28.00 27.48 26.58 25.48 26.34 26.87
39.19 39.55 38.88 38.47 38.41 37.27 32.65 30.47 29.45 28.86 28.59 28.38 28.61 32.28 32.21 31.66 27.73 26.71 26.07 25.86 25.93 26.43
35.21 34.60 32.88 31.84 30.49 28.79 28.10 27.49 26.82 27.09 27.54 27.33 28.25 31.07 30.65 30.47 26.42 24.91 25.54 25.96 26.18 25.87
33.01 31.11 29.83 28.56 27.10 26.98 25.93 25.81 25.96 27.08 26.93 25.83 25.60 28.60 28.61 27.43 21.89 22.98 23.43 26.11 26.32 26.10
31.16 29.75 27.88 26.52 25.87 25.98 24.86 25.63 26.11 25.52 25.20 25.35 22.36 26.24 27.78 26.93 24.18 23.61 24.19 24.88 25.72 27.29
30.51 29.15 27.48 25.89 25.64 24.30 24.04 23.56 18.54 17.24 19.08 21.47 23.36 22.67 27.11 27.48 25.91 24.20 23.88 24.07 24.71 26.41

GFSNIL_sfc_wetblb_006.txt.gz
Wetbulb
40.52 40.13 40.55 40.74 39.86 38.30 36.49 36.25 38.53 39.45 40.33 40.05 40.26 40.62 40.77 40.50 40.96 40.90 39.97 38.44 38.07 37.34
39.76 40.06 40.47 39.72 36.76 36.08 36.14 39.20 39.24 39.43 39.72 40.16 41.48 41.64 41.11 39.40 38.60 38.11 37.82 37.28 37.57 37.36
39.22 40.18 40.04 37.32 35.79 35.49 36.83 39.10 39.26 39.17 38.72 39.28 38.77 39.52 40.57 40.03 40.03 38.81 38.26 37.86 36.80 36.04
39.50 39.08 37.58 34.59 34.70 35.51 37.62 38.14 37.11 37.99 37.81 38.04 39.02 38.98 37.99 37.63 36.68 35.56 35.17 34.71 33.80 32.69
36.70 34.22 33.06 33.44 34.40 35.45 35.81 36.00 35.82 36.84 36.73 36.44 35.53 35.08 34.59 33.72 33.34 32.47 31.24 31.07 30.72 30.92
32.45 31.06 31.77 32.65 34.24 35.71 35.94 36.23 36.53 36.23 36.71 36.46 35.54 34.58 33.29 31.76 31.00 30.41 30.11 29.72 29.20 29.35
32.43 31.75 32.95 35.44 36.20 36.37 36.67 36.94 37.02 37.10 35.76 34.76 32.91 32.31 31.81 31.12 29.31 28.41 28.61 28.65 28.01 27.44
38.10 37.89 36.38 36.69 37.06 37.29 37.15 37.66 38.17 37.40 33.68 31.86 31.21 31.38 29.78 28.94 28.12 27.45 27.00 27.58 27.58 27.78
40.40 39.95 38.31 38.45 37.90 37.74 37.18 37.31 37.72 33.93 28.95 28.33 29.95 33.15 32.73 31.91 28.72 28.25 27.41 26.04 26.30 26.58
36.13 37.19 36.89 37.29 36.77 35.26 32.18 29.43 28.00 27.61 27.88 28.12 28.25 31.41 31.72 31.45 28.22 27.37 26.53 25.41 25.49 26.05
33.80 31.68 30.60 29.72 28.61 28.02 27.63 26.80 26.08 26.63 27.39 26.54 26.56 29.56 29.36 29.01 26.26 24.86 24.82 25.22 25.37 25.37
30.14 28.99 28.58 27.17 25.99 26.05 25.48 25.39 25.92 27.19 25.71 24.38 24.42 27.66 28.07 27.42 23.09 22.53 22.74 25.25 25.78 25.65
28.91 27.63 25.88 24.75 24.66 25.28 24.42 25.77 25.71 24.17 24.05 24.40 22.16 25.63 27.51 26.70 23.78 22.78 24.18 24.12 26.02 26.81
27.50 26.49 24.90 24.13 24.15 23.41 23.41 23.23 18.55 16.57 18.80 21.03 22.82 22.29 26.49 27.02 25.07 24.82 24.25 24.60 24.36 25.81

GFSNIL_sfc_wetblb_009.txt.gz
Wetbulb
47.75 46.79 45.74 46.14 45.92 45.57 44.06 44.12 44.89 45.30 45.65 45.72 45.57 45.33 45.41 44.50 41.23 39.93 39.44 37.89 37.18 36.18
45.96 45.49 45.06 44.97 44.14 43.20 42.80 44.14 45.39 45.70 45.30 45.46 45.51 44.90 43.26 42.97 39.97 38.82 37.21 37.37 37.85 37.62
44.97 44.62 43.32 41.57 41.09 41.56 42.77 44.63 44.97 43.83 43.01 42.55 42.77 42.28 41.56 41.74 41.55 40.95 40.99 40.51 39.77 39.87
43.31 41.24 39.60 39.73 40.56 41.24 43.10 42.70 41.11 41.15 40.98 40.36 39.35 39.73 40.61 40.31 40.18 39.22 38.89 38.99 38.01 36.95
40.18 38.59 38.68 39.52 40.17 41.15 40.53 40.71 40.38 40.45 39.84 39.21 39.35 40.43 38.74 37.58 37.50 36.79 35.97 36.01 35.93 35.67
39.23 38.48 40.24 40.65 41.17 41.54 41.25 41.16 41.41 40.29 39.53 39.04 37.85 37.39 36.87 35.84 35.79 35.58 35.51 35.09 34.40 33.94
39.62 40.03 40.42 40.83 40.98 41.02 40.75 40.28 39.07 38.48 38.79 38.41 37.57 36.24 35.63 35.45 35.05 34.57 33.86 33.49 33.10 32.55
41.49 41.41 39.72 39.28 39.63 40.35 40.21 39.87 39.93 39.41 38.26 34.88 34.24 34.02 34.87 34.22 33.56 33.26 32.85 33.02 32.50 32.16
38.02 38.85 38.70 38.76 38.81 38.82 37.48 35.57 34.20 33.35 32.67 32.67 32.49 32.84 33.19 32.92 32.93 32.16 31.08 30.05 30.22 30.47
38.09 36.35 35.58 35.19 34.80 33.97 33.41 33.45 32.66 32.37 32.44 31.88 31.81 29.89 30.37 30.11 30.63 30.16 29.59 28.70 28.45 28.70
35.69 33.96 34.02 33.60 32.61 32.22 32.39 31.58 31.12 31.37 30.98 30.02 29.77 28.35 28.55 28.36 29.46 29.11 28.75 28.63 28.82 28.49
33.81 32.90 32.44 31.37 31.07 31.31 30.74 30.52 30.27 29.51 28.95 28.52 28.52 27.51 27.42 27.90 28.30 27.76 27.49 28.26 29.06 28.83
32.68 31.98 31.23 30.69 30.32 30.63 30.32 29.38 28.90 27.75 28.38 27.43 27.05 26.75 26.75 27.09 27.29 25.97 26.22 27.78 28.60 28.20
32.00 31.46 31.40 30.11 30.42 29.60 29.14 28.15 27.29 26.90 27.26 27.03 26.53 26.34 26.06 26.11 26.30 26.07 26.12 26.65 27.49 29.14

GFSNIL_sfc_wetblb_012.txt.gz
Wetbulb
52.17 51.38 49.63 48.77 47.75 46.99 47.37 47.96 49.01 49.29 48.97 48.62 48.56 48.00 47.22 45.80 43.87 40.84 39.56 38.71 38.37 37.86
50.90 49.11 47.83 47.07 46.81 46.79 47.38 47.29 48.56 48.24 47.69 46.88 46.27 45.34 44.43 42.86 41.85 42.31 41.45 40.70 40.46 39.73
48.81 47.70 46.26 45.90 45.56 46.13 46.88 47.53 46.44 45.71 45.24 44.65 43.85 42.94 41.67 41.72 41.92 41.03 41.10 40.78 40.57 41.38
46.90 45.58 45.45 45.14 44.96 45.22 45.52 44.60 44.15 43.76 43.41 42.13 40.97 40.81 40.65 41.14 41.15 39.98 39.56 39.90 39.53 39.24
45.43 45.18 44.76 44.45 44.40 44.69 43.97 44.36 43.79 42.71 41.71 40.89 40.52 41.36 39.25 39.06 39.20 38.28 37.38 37.68 38.13 37.42
45.01 44.44 43.41 43.68 43.24 43.58 42.94 42.41 42.06 41.54 40.09 40.16 40.81 40.49 39.78 39.23 38.88 38.62 38.29 37.75 37.11 36.76
43.83 43.17 43.36 42.96 42.60 42.50 42.31 41.39 41.06 40.91 40.33 39.73 38.39 37.99 37.79 37.72 37.59 37.29 37.13 37.01 36.75 36.06
42.74 42.64 42.13 41.67 41.37 41.22 40.89 39.96 39.13 38.45 37.92 37.75 37.10 36.18 35.64 35.72 35.82 35.81 35.39 35.75 35.38 35.53
41.59 41.33 40.59 40.06 39.55 38.93 38.03 37.89 37.66 37.17 36.64 36.35 35.88 31.18 30.69 31.57 33.30 33.73 33.86 33.68 34.25 34.48
40.74 39.73 38.97 38.35 37.39 36.81 36.66 37.04 36.26 36.06 35.85 34.99 35.23 29.82 29.55 29.01 31.58 31.92 32.59 32.72 32.71 32.30
39.13 37.84 37.59 36.56 36.04 36.13 36.38 35.69 35.27 35.02 34.43 33.87 33.71 29.78 28.58 27.95 30.83 31.88 32.02 32.25 32.10 31.87
38.11 36.82 36.02 35.36 35.39 35.80 35.32 34.85 34.35 33.75 32.93 32.45 32.39 29.82 27.97 27.73 29.40 29.75 30.00 30.25 30.31 29.55
38.16 36.35 35.22 35.43 35.46 35.64 35.16 33.84 33.57 32.08 32.30 30.74 30.44 28.92 27.43 27.58 28.43 26.84 27.33 28.77 29.50 29.83
37.87 36.04 35.83 35.79 36.11 35.27 34.27 32.78 30.97 30.39 30.08 30.40 29.30 28.61 27.35 26.68 26.12 26.80 26.35 26.84 28.11 30.70

GFSNIL_sfc_wetblb_015.txt.gz
Wetbulb
53.63 52.04 50.79 49.58 47.78 46.93 47.04 48.11 48.71 49.16 49.69 48.40 48.05 46.37 44.46 43.36 41.77 41.04 41.99 40.62 39.83 39.26
51.78 50.37 48.77 47.63 47.20 47.25 47.48 47.46 48.57 48.18 46.84 45.99 44.28 44.53 44.86 43.86 42.87 43.23 42.46 42.36 41.98 40.85
50.16 49.21 47.48 46.91 46.27 46.19 46.61 46.77 45.94 45.87 45.32 43.77 43.69 42.98 43.06 41.99 42.32 41.94 42.50 42.21 41.25 40.90
48.32 47.42 46.81 46.11 46.12 45.23 45.27 44.76 44.47 44.01 43.54 42.47 41.81 42.02 41.90 41.23 41.23 40.11 40.09 40.15 39.24 39.20
47.10 46.83 46.20 45.38 43.92 44.04 43.42 44.45 44.50 43.80 41.97 42.02 41.93 41.47 40.47 40.35 39.88 39.01 38.51 38.91 38.82 38.47
46.08 45.51 43.62 43.30 43.01 42.88 42.80 42.43 42.86 42.48 41.46 40.89 40.58 39.69 39.19 38.90 38.38 37.96 37.98 37.70 37.10 37.12
45.02 43.91 42.81 43.25 42.79 41.99 41.93 40.80 39.79 39.96 39.41 39.23 38.80 38.59 38.43 37.75 36.53 36.59 36.67 37.34 37.02 36.77
44.32 43.18 42.24 42.10 41.26 40.89 40.30 39.47 39.25 38.78 38.69 38.52 38.23 37.09 35.79 35.08 34.10 34.14 34.45 35.45 35.98 36.61
42.79 41.57 41.58 40.61 39.92 39.27 38.75 38.44 38.51 37.81 37.63 37.17 36.81 31.13 30.57 30.78 31.96 31.83 32.46 32.78 34.14 35.21
41.95 40.94 40.19 39.29 38.68 37.96 37.63 38.01 37.29 37.05 36.83 35.86 35.79 30.44 30.07 29.64 31.14 30.45 31.49 32.66 33.08 33.17
41.46 40.45 39.12 38.81 37.65 37.58 37.48 36.94 36.46 35.93 35.62 34.81 34.39 31.27 29.62 28.76 29.97 30.59 31.03 31.70 31.98 31.89
40.94 39.16 38.12 37.55 37.04 37.21 36.79 36.24 35.55 35.36 34.30 32.60 32.54 31.84 29.73 28.75 28.92 28.44 28.58 29.63 30.73 30.27
40.16 38.73 37.58 37.37 36.95 37.31 36.79 35.57 35.17 33.93 32.91 31.36 31.15 31.60 29.79 28.99 28.74 26.58 27.43 28.54 28.94 29.85
40.34 39.01 38.09 37.38 37.36 36.70 36.11 35.36 33.81 32.94 32.72 31.88 31.87 31.03 29.71 28.15 27.68 27.16 27.19 27.02 28.20 30.56

GFSNIL_sfc_wetblb_018.txt.gz
Wetbulb
51.77 49.44 48.26 46.54 45.27 44.55 44.23 44.78 46.22 45.34 46.34 43.95 44.16 44.42 43.87 43.26 42.11 40.65 40.87 41.06 40.54 39.28
49.44 48.38 46.62 45.70 45.09 44.50 45.00 45.07 44.48 44.72 44.05 43.47 43.50 43.28 42.48 41.34 40.80 41.07 41.08 41.31 40.63 40.06
47.76 47.40 46.16 45.34 44.42 43.80 43.28 43.90 43.15 43.38 43.09 42.98 42.85 41.86 40.96 39.97 40.33 40.64 41.01 40.90 40.24 39.62
46.39 46.21 45.80 44.85 43.60 43.02 42.86 42.32 42.31 43.20 42.30 41.44 40.52 40.86 40.59 40.18 39.41 39.30 38.27 39.02 38.90 38.27
45.57 45.28 44.60 43.11 42.70 42.43 41.58 42.09 41.65 41.20 40.77 40.14 40.09 39.75 39.24 38.00 38.08 37.35 36.72 37.07 37.32 37.18
44.32 43.90 42.46 41.70 42.15 41.98 41.11 40.56 39.79 38.63 37.45 36.93 36.80 36.24 35.77 35.52 34.98 33.51 33.33 33.33 33.75 34.09
43.42 42.73 41.37 41.35 41.41 40.93 40.47 38.72 37.55 37.38 37.23 37.24 36.68 36.55 35.58 34.92 33.00 32.03 31.88 32.21 32.10 32.45
43.30 42.62 41.35 41.24 40.74 39.94 39.06 37.79 37.49 36.79 36.50 36.24 36.18 33.69 31.64 31.51 30.49 29.83 29.63 30.09 31.24 32.05
43.32 42.56 41.11 40.39 40.07 39.21 37.32 36.82 36.21 35.40 35.27 34.76 35.61 31.51 31.24 29.93 27.72 29.19 28.48 27.46 28.78 30.83
42.71 41.40 40.59 40.01 38.73 37.39 35.71 35.53 34.78 34.45 34.38 33.33 32.86 31.84 31.15 30.04 28.06 27.20 26.96 27.20 27.75 29.08
41.61 40.67 40.05 38.98 37.69 36.63 35.58 34.37 33.58 33.21 32.96 31.92 32.36 33.26 31.79 30.45 26.66 25.99 26.33 26.99 26.33 26.56
40.83 39.90 39.09 38.05 36.70 35.09 34.47 33.50 33.35 33.36 31.84 30.11 29.79 32.55 32.36 30.49 26.36 26.08 25.25 26.08 26.91 27.00
40.99 39.65 37.38 36.42 35.67 34.79 34.88 33.87 32.91 31.72 31.12 31.95 29.19 32.49 32.28 29.58 26.22 23.18 24.61 25.74 26.79 28.45
39.58 38.26 37.54 36.66 35.51 34.47 33.04 31.71 30.35 29.69 29.71 29.49 29.92 29.24 30.00 28.59 25.75 24.51 23.68 24.04 24.41 26.25

GFSNIL_sfc_wetblb_021.txt.gz
Wetbulb
45.82 44.47 43.02 42.14 41.42 40.76 40.72 40.79 40.99 41.27 41.74 42.90 42.83 41.27 40.95 40.03 40.22 39.19 38.24 37.15 37.76 38.91
44.76 44.06 42.55 41.59 40.75 40.54 40.08 41.98 40.33 40.00 40.73 42.84 42.08 40.94 40.11 38.93 37.77 37.58 37.44 38.09 40.60 40.51
42.69 42.50 41.67 40.86 39.76 39.79 39.44 40.07 38.84 39.38 40.24 40.53 40.33 39.71 38.49 37.69 38.16 37.61 37.21 37.63 37.40 36.70
41.08 41.34 40.99 40.37 39.71 39.34 39.26 39.23 39.22 39.84 38.94 38.49 38.35 38.27 37.59 37.01 37.47 37.13 36.37 35.51 35.30 35.52
40.99 40.56 39.76 39.27 39.40 39.05 38.15 38.37 38.16 37.62 35.69 35.40 34.87 34.95 34.53 34.11 32.45 31.79 30.54 30.75 30.44 30.88
39.67 39.74 38.46 38.04 38.74 38.78 37.83 37.10 35.88 34.98 34.39 34.31 34.58 33.76 32.93 32.55 31.59 30.64 30.77 29.99 29.38 29.20
39.23 40.53 38.05 38.11 38.05 38.52 37.24 35.74 34.20 34.39 34.64 34.75 34.26 32.98 31.99 31.14 29.31 28.56 29.11 29.57 28.95 28.81
41.28 41.20 38.41 38.70 39.63 39.03 37.17 35.56 34.37 33.98 33.75 33.58 33.20 31.72 29.09 28.48 27.11 26.66 26.85 27.53 28.23 28.52
40.94 39.91 39.98 38.80 39.17 38.34 36.05 33.39 33.05 32.73 32.94 31.43 32.50 31.80 31.09 29.00 25.92 26.40 26.10 24.80 25.60 26.96
39.77 39.96 39.92 39.61 39.49 36.95 33.74 32.27 31.58 31.61 31.43 30.18 29.15 32.42 31.66 30.83 27.12 25.42 24.45 23.84 24.59 25.15
39.02 38.54 38.21 38.41 37.26 34.88 32.70 31.90 31.04 31.07 29.39 28.70 30.49 32.85 32.99 32.31 26.59 25.04 25.04 24.84 24.65 24.26
38.53 37.39 36.80 36.10 34.05 34.49 32.92 31.39 31.08 29.87 28.97 27.98 28.02 31.81 31.94 29.22 26.42 26.25 25.49 26.04 25.98 25.63
37.45 37.15 36.79 34.76 34.99 33.96 30.98 31.04 29.79 29.46 28.74 29.94 26.69 30.41 30.14 28.65 23.36 20.90 23.37 23.76 24.85 26.17
36.92 36.51 37.09 34.85 33.47 31.66 29.00 28.21 26.08 25.55 26.54 27.21 27.60 25.87 28.59 27.51 23.97 22.93 23.34 22.34 22.57 24.45

GFSNIL_sfc_wetblb_024.txt.gz
Wetbulb
43.98 42.50 41.59 40.91 39.80 39.56 38.94 38.96 39.11 39.28 40.51 41.11 41.77 41.00 39.72 38.25 37.16 36.77 35.69 35.14 35.65 37.04
43.14 42.49 41.28 40.09 39.32 38.82 38.79 40.47 38.86 38.13 38.97 39.89 40.36 39.48 38.52 37.01 36.11 36.02 35.59 35.52 36.89 36.80
41.09 41.10 40.42 39.46 38.82 38.68 38.52 38.80 37.72 37.52 37.86 38.28 38.61 38.24 37.10 36.00 35.86 35.34 35.13 35.99 33.88 33.71
39.82 39.77 40.08 39.18 38.84 38.73 38.29 38.18 37.70 37.94 36.98 34.75 34.23 34.29 33.85 33.78 33.44 32.43 30.54 30.13 29.96 29.90
39.57 38.94 39.11 38.62 38.64 38.03 37.53 38.34 38.63 37.92 34.82 34.57 33.11 32.60 31.59 31.06 30.66 29.70 29.06 29.28 28.82 28.69
38.51 38.06 38.00 37.69 37.47 38.02 37.89 37.61 37.93 35.30 34.62 34.37 33.48 32.12 31.06 30.33 29.25 28.06 27.91 27.79 27.30 27.35
38.09 38.80 37.80 36.68 38.31 39.18 39.92 38.58 37.36 35.03 34.71 34.23 32.93 31.29 30.25 29.19 27.21 26.87 27.33 27.85 27.36 26.50
39.33 38.77 37.19 37.66 38.56 38.85 38.31 38.57 37.38 35.26 34.38 33.05 31.06 30.64 28.02 28.06 27.29 26.38 26.03 26.63 26.47 26.24
38.58 38.35 38.30 38.32 37.90 36.88 38.27 37.69 33.87 33.81 32.42 30.48 31.38 32.17 31.35 30.04 26.13 26.55 25.71 24.38 25.07 25.20
37.67 37.28 36.92 37.43 37.57 37.60 34.08 33.98 33.39 31.83 30.65 28.74 28.37 32.23 33.27 33.27 28.62 26.35 24.89 24.06 24.28 25.10
37.34 36.63 36.28 35.25 35.79 34.90 33.58 32.87 30.66 29.39 28.33 27.90 29.50 31.75 31.54 30.63 26.53 25.36 25.41 25.33 24.68 23.96
36.07 35.88 35.95 35.30 34.69 32.51 31.08 29.03 29.32 29.11 27.77 26.72 26.62 30.22 29.56 27.66 23.67 24.01 23.16 24.46 24.47 24.14
35.79 35.09 34.53 33.83 32.44 31.49 29.55 29.53 28.55 28.22 26.81 28.06 24.38 27.26 28.10 26.54 23.20 18.08 21.88 22.97 23.71 24.84
33.45 33.69 33.91 33.93 33.34 30.72 27.94 26.98 24.57 23.61 24.57 24.84 24.86 23.45 26.02 25.84 22.38 21.55 21.94 21.40 21.91 23.45

GFSNIL_sfc_wetblb_027.txt.gz
Wetbulb
42.93 41.72 41.29 40.34 39.25 38.41 38.85 38.39 38.58 37.74 39.85 39.79 40.11 39.76 38.54 37.12 36.20 35.13 34.56 33.42 33.24 33.95
42.56 41.65 40.68 40.12 38.86 38.68 38.53 39.16 38.37 37.08 38.10 38.68 39.80 38.78 37.61 35.95 34.93 34.37 33.96 33.45 33.27 32.84
40.26 40.40 40.35 39.14 38.56 38.26 38.22 37.92 37.94 37.11 37.22 38.60 38.26 37.79 36.23 34.19 34.24 33.27 32.63 32.93 29.11 28.58
39.07 38.66 38.67 38.65 38.52 38.22 37.76 37.45 38.57 38.66 38.07 36.54 35.00 34.18 33.13 32.14 31.94 30.60 28.75 28.41 28.29 28.29
37.67 37.46 36.92 37.63 38.02 37.72 37.19 38.57 37.24 37.60 38.16 37.34 34.35 33.54 32.67 31.46 30.66 28.68 27.65 27.43 27.17 27.18
37.14 37.05 36.52 36.39 36.93 36.93 37.42 36.98 37.42 37.18 37.89 34.89 34.60 33.56 31.76 30.46 28.63 27.42 27.22 27.11 26.67 26.43
36.57 37.21 36.34 36.08 35.85 36.42 37.21 36.93 36.13 37.02 34.32 35.49 34.32 32.35 29.99 28.42 27.51 27.53 27.39 27.39 27.05 26.05
37.03 37.12 36.94 37.11 37.21 37.43 36.69 36.81 37.95 36.85 34.33 33.81 32.32 30.48 28.32 28.38 27.96 26.56 26.18 26.83 26.78 26.46
36.77 36.76 35.95 35.46 35.81 35.95 38.03 35.21 35.13 34.71 32.78 29.20 31.00 32.51 32.79 32.10 27.77 27.62 26.51 25.31 26.07 25.73
36.50 35.72 35.31 35.42 34.76 35.02 34.22 33.29 32.43 30.43 28.48 27.96 28.65 32.30 32.13 31.15 27.67 26.59 25.68 24.62 24.49 24.26
35.15 34.44 34.78 34.14 34.40 34.96 34.18 30.54 28.41 27.76 27.81 27.05 28.19 30.55 29.72 28.83 24.36 23.16 23.75 23.12 23.03 23.14
33.71 33.87 33.45 33.49 32.28 32.44 30.36 28.02 28.06 28.27 27.00 25.17 24.35 27.97 28.04 26.41 22.75 22.56 21.84 23.37 23.49 23.79
32.55 32.60 32.13 31.51 31.48 32.69 30.82 29.23 28.15 27.31 25.92 26.48 22.87 25.98 26.43 25.28 20.17 15.22 21.24 22.03 22.80 24.53
30.78 30.06 30.00 29.95 30.38 28.63 26.94 26.39 24.24 24.21 24.10 23.98 23.78 22.47 25.79 25.79 19.93 20.80 21.21 21.24 21.64 23.33

GFSNIL_sfc_wetblb_030.txt.gz
Wetbulb
42.61 41.34 40.74 39.88 38.87 38.49 37.67 38.04 38.00 37.57 37.38 38.67 38.97 38.67 39.01 36.95 36.17 35.40 34.55 32.85 32.59 32.75
41.62 40.82 40.23 39.60 38.59 38.17 38.13 39.26 38.22 37.16 36.15 37.66 38.45 39.86 39.47 38.02 35.42 34.17 34.19 33.10 32.63 32.20
38.69 38.44 38.10 38.11 38.05 37.94 37.85 37.35 37.40 37.05 37.90 38.24 36.93 36.85 37.77 36.43 35.30 33.82 33.35 33.49 30.19 28.69
37.31 37.11 36.75 36.77 37.20 37.29 37.17 37.26 36.94 37.12 36.66 35.53 35.74 36.34 33.93 33.82 32.99 31.27 29.67 29.07 28.71 28.05
36.61 36.47 35.86 35.76 35.84 36.09 36.27 36.92 36.61 36.21 35.89 36.21 37.40 35.16 32.31 31.86 31.28 28.97 27.88 27.89 27.28 27.51
35.63 35.60 34.95 34.78 35.00 35.51 35.57 35.87 35.62 35.90 37.29 37.19 34.45 32.77 33.25 30.90 29.09 27.77 27.71 27.42 26.88 26.86
35.06 35.10 34.61 35.00 35.07 35.36 36.02 35.37 35.07 37.65 37.06 35.68 33.64 33.69 30.63 28.57 27.74 27.31 27.40 27.65 27.14 26.73
35.41 35.37 34.78 34.76 34.81 35.11 34.98 35.92 36.05 35.24 34.25 31.89 30.49 29.73 28.47 28.70 28.26 27.30 27.11 27.12 27.46 27.68
35.37 35.32 34.67 34.20 34.00 34.01 34.41 35.33 34.93 33.09 30.46 27.82 29.95 32.69 32.72 30.50 27.47 26.76 26.23 25.03 25.26 25.39
35.00 34.49 33.76 33.90 33.17 32.98 32.69 30.49 30.04 28.60 27.72 26.60 28.03 31.73 30.48 30.11 26.37 24.11 23.34 22.76 22.50 22.79
33.06 32.48 32.70 32.33 35.18 31.70 32.28 33.10 28.11 27.06 26.71 26.41 27.34 28.57 28.41 28.28 24.35 22.78 22.86 22.71 22.44 22.46
31.95 31.06 31.33 30.89 30.33 30.72 31.10 30.27 27.98 27.21 26.27 23.90 23.36 27.28 27.06 25.81 22.76 22.38 21.87 23.06 23.25 23.71
30.80 29.58 28.70 28.67 28.84 29.93 30.15 28.25 27.78 26.91 25.39 25.96 22.75 25.15 26.29 25.60 20.80 15.65 20.97 22.52 23.13 24.16
29.69 28.99 28.29 26.87 28.37 28.48 26.79 26.27 24.31 24.13 24.18 23.97 23.90 22.72 25.59 26.45 21.09 20.77 22.22 21.44 21.41 22.84

GFSNIL_sfc_wetblb_033.txt.gz
Wetbulb
49.99 49.42 48.12 47.01 46.80 46.47 46.18 46.14 46.11 45.44 44.86 44.24 44.46 44.95 44.83 43.73 43.57 43.68 42.61 41.34 40.64 39.91
47.61 47.14 46.91 46.55 46.09 45.54 45.73 44.93 45.32 45.25 44.59 44.23 44.13 44.13 43.79 42.68 41.95 42.17 41.94 41.07 40.39 39.58
45.72 45.05 44.73 44.79 44.28 44.23 44.63 44.63 44.52 44.59 44.51 44.24 43.22 42.63 41.05 39.74 39.92 39.46 40.10 39.29 38.59 37.50
43.84 43.73 43.54 43.14 43.46 43.42 43.62 43.40 42.76 42.79 42.79 42.11 40.22 40.57 40.97 40.30 38.57 36.91 37.04 36.74 35.49 35.01
42.96 42.76 42.57 42.16 42.00 42.16 41.03 41.47 41.23 41.71 41.05 40.38 39.73 39.38 38.01 36.92 37.27 36.25 34.85 34.14 34.14 33.87
42.01 41.78 41.07 40.64 40.70 40.96 40.54 40.79 41.43 41.15 40.62 38.73 36.87 36.90 37.46 36.85 34.87 33.85 33.61 33.79 33.10 32.59
41.29 40.58 40.31 40.19 39.96 39.95 40.17 39.98 39.75 40.24 39.17 37.24 37.28 36.65 35.42 34.08 33.88 34.03 33.45 33.06 32.35 31.47
40.61 40.51 39.82 39.22 39.31 39.39 38.64 38.70 38.67 37.55 37.23 35.62 34.90 33.99 34.56 34.11 33.18 31.81 30.74 30.58 29.66 29.33
39.58 39.41 38.79 38.41 38.35 38.43 37.87 37.48 37.64 36.59 34.54 34.02 33.76 32.44 31.35 31.51 31.49 29.89 28.45 27.39 27.70 27.64
38.19 37.68 37.56 37.61 37.55 37.30 37.38 36.36 36.19 34.87 33.67 32.71 33.19 29.85 29.45 29.38 30.06 28.22 27.56 26.65 26.37 26.13
37.19 36.65 36.49 36.15 35.92 36.41 37.58 37.00 35.77 33.03 32.35 32.07 30.18 28.20 27.95 27.52 28.66 27.66 26.92 26.67 26.50 26.20
36.54 35.41 34.91 34.78 34.39 35.12 35.87 35.75 34.11 33.11 31.35 29.90 29.25 26.72 27.08 27.44 27.77 26.81 26.13 26.42 26.85 26.26
36.15 34.74 34.29 33.91 33.47 34.68 36.24 35.41 33.75 31.21 30.55 27.80 28.14 25.29 26.32 27.21 28.11 26.17 25.81 26.26 26.10 24.84
35.25 34.22 34.42 33.62 33.41 33.13 33.56 32.67 31.22 29.76 29.61 28.57 27.78 27.47 25.67 26.24 27.42 26.28 25.13 24.52 24.23 24.79

GFSNIL_sfc_wetblb_036.txt.gz
Wetbulb
52.20 53.42 52.74 51.48 50.95 50.10 49.33 49.04 48.95 47.93 47.59 47.26 47.20 47.56 47.67 46.90 45.95 45.32 44.28 42.69 41.45 39.83
52.80 51.37 50.60 49.64 49.36 48.39 47.50 46.32 46.45 46.67 45.98 46.00 46.13 46.71 46.74 45.68 45.06 44.62 43.52 41.94 40.98 39.45
50.85 49.79 48.67 48.75 46.44 45.90 46.06 45.85 45.45 45.00 44.68 44.85 45.26 45.83 45.81 44.62 43.25 43.35 42.13 40.81 39.73 39.29
48.18 47.73 47.78 47.17 45.69 45.38 45.53 44.94 43.94 43.72 43.71 43.71 43.93 43.97 42.35 41.50 41.70 40.97 39.52 39.26 38.54 38.50
46.95 46.66 46.54 45.30 44.62 45.13 44.22 43.95 43.67 43.63 43.29 43.24 41.30 41.71 41.30 40.29 39.68 38.22 37.83 38.44 38.27 37.63
45.71 45.53 44.77 43.96 44.42 44.10 43.17 42.95 43.24 42.63 40.46 40.01 40.64 40.30 39.39 38.59 38.74 38.50 38.03 37.81 37.04 36.37
45.00 44.89 44.56 43.67 43.58 42.79 42.71 42.19 41.90 41.68 40.70 39.77 39.77 39.00 38.72 37.99 38.09 37.95 37.30 36.65 35.69 34.68
44.72 44.11 43.41 42.90 42.31 42.05 41.85 41.72 41.81 40.21 39.68 39.70 39.01 38.23 37.77 37.57 37.05 36.45 35.18 34.60 33.66 33.49
42.94 42.13 42.11 41.66 41.08 41.19 41.38 41.33 40.82 40.30 39.47 38.19 37.94 31.58 30.64 31.40 34.93 34.74 33.27 32.39 32.60 32.67
41.48 41.03 40.82 40.55 40.32 40.23 40.26 40.70 39.16 38.69 39.08 37.68 37.56 29.65 29.11 28.82 33.16 32.96 32.43 31.68 31.27 30.76
40.52 39.86 40.07 39.79 39.48 39.71 39.78 39.51 37.98 37.35 37.90 37.27 36.04 28.31 27.74 28.03 32.94 32.69 32.14 31.48 30.99 30.83
40.11 39.51 39.52 38.90 38.85 38.85 38.76 38.66 37.58 37.82 37.29 36.34 35.35 27.75 27.26 28.12 32.02 31.62 30.90 31.06 31.14 29.73
39.87 39.21 38.70 38.53 38.19 38.48 38.45 37.16 36.30 36.51 36.75 33.25 33.91 27.90 26.53 27.98 31.25 29.96 29.98 30.62 30.40 27.90
39.23 38.76 38.74 38.49 38.57 37.89 37.21 36.56 35.99 34.73 35.19 34.73 33.88 32.93 26.69 26.56 29.36 29.62 28.78 28.51 28.76 29.01

GFSNIL_sfc_wetblb_039.txt.gz
Wetbulb
53.99 52.57 52.46 51.76 51.05 50.10 49.38 48.97 48.98 47.81 47.48 46.84 46.49 46.65 47.05 47.01 47.35 46.71 45.90 44.08 43.48 42.14
52.39 51.92 51.16 50.49 50.41 49.28 48.46 47.29 46.95 46.86 46.00 45.61 45.52 45.47 45.72 45.86 45.97 45.79 45.04 44.13 42.93 42.20
51.53 50.98 49.99 49.62 48.06 47.29 47.08 46.57 46.00 45.21 44.93 45.05 45.12 45.08 45.06 44.53 44.35 43.66 43.70 42.18 41.01 40.51
49.98 49.22 48.47 48.27 47.72 46.31 46.23 45.56 44.48 44.27 44.48 44.21 44.07 44.25 43.50 43.15 42.92 41.22 41.03 40.56 40.35 39.19
49.15 47.96 47.22 46.86 45.85 46.06 45.23 44.90 44.05 44.17 43.70 43.45 42.50 42.49 40.73 39.96 39.26 39.18 37.98 39.02 38.50 37.96
47.56 47.24 46.52 45.60 45.42 45.38 44.60 43.77 43.80 43.56 42.75 41.88 40.63 39.80 40.18 40.16 39.38 38.41 38.22 38.04 37.25 36.75
46.70 46.46 45.66 45.28 45.13 44.58 43.71 43.05 42.97 43.03 42.37 41.33 40.49 40.03 39.72 39.11 38.17 37.82 37.79 37.70 36.63 35.76
46.17 45.72 45.07 44.40 44.29 43.59 43.21 43.01 43.12 42.27 41.03 40.55 40.41 39.28 37.92 37.85 37.31 36.38 36.11 36.25 35.71 35.29
44.30 44.25 43.73 43.51 42.99 42.53 42.29 42.44 42.53 41.40 40.04 38.92 39.05 31.34 30.90 31.26 34.99 35.26 34.89 34.04 34.23 34.37
43.46 42.55 42.67 42.24 41.84 41.32 41.37 41.70 40.98 39.54 38.63 38.63 38.70 31.24 30.04 29.14 32.97 34.20 34.41 33.99 33.07 32.57
42.28 41.76 41.63 41.23 40.99 41.05 41.25 40.28 40.09 39.22 38.08 37.65 37.34 30.80 29.22 28.42 32.21 34.39 34.30 33.96 33.12 32.25
41.47 40.72 40.52 40.17 40.40 40.81 39.96 39.65 39.39 39.02 37.77 37.74 37.40 30.26 28.93 28.10 32.44 32.85 32.66 32.92 32.81 31.87
40.97 40.17 39.68 39.92 39.90 40.38 39.75 38.68 38.43 37.10 38.08 36.68 36.42 30.40 29.40 28.44 31.68 30.85 31.07 32.04 32.00 29.13
40.23 39.80 39.98 39.64 39.73 39.33 38.90 38.20 36.84 35.75 36.26 35.74 35.23 34.61 29.80 28.35 29.60 30.43 29.70 29.24 29.94 30.92

GFSNIL_sfc_wetblb_042.txt.gz
Wetbulb
53.97 51.79 51.18 51.60 49.47 47.62 46.69 46.13 46.23 45.13 44.47 44.12 43.66 42.99 42.49 41.98 41.76 41.45 41.57 40.30 41.24 41.00
51.87 51.07 49.44 48.54 48.35 46.68 45.89 45.75 44.66 43.98 43.00 42.92 42.83 42.73 42.16 41.06 40.99 40.94 40.54 39.80 39.46 38.22
50.98 49.86 48.85 48.47 47.19 45.41 44.65 44.24 43.49 42.62 42.18 42.33 42.34 42.22 41.31 40.40 40.53 39.54 39.18 38.64 38.31 38.20
48.76 48.28 48.00 47.02 45.54 44.43 43.85 43.46 42.57 42.26 41.87 41.77 41.32 40.46 39.48 38.94 38.71 38.07 37.31 36.98 36.68 36.59
48.52 47.83 47.27 46.09 44.92 43.90 42.91 43.28 42.20 41.99 41.67 41.54 39.99 39.33 38.55 38.45 37.86 36.34 35.70 35.84 35.06 35.43
47.44 46.06 45.99 44.96 43.89 43.63 42.78 42.04 41.57 41.56 41.10 40.52 39.73 37.97 38.21 37.58 37.25 36.38 35.63 35.45 34.44 32.98
46.74 46.48 44.85 43.82 43.25 43.07 42.69 41.62 41.32 41.55 41.45 40.48 39.06 39.15 39.16 38.68 36.03 34.41 34.12 33.86 33.16 32.41
46.29 45.48 44.70 43.56 42.83 43.09 42.20 41.49 41.67 41.18 40.69 39.22 39.00 38.75 35.78 34.60 33.00 32.14 31.90 32.37 33.36 31.84
44.66 44.43 42.93 42.21 42.54 42.16 41.51 41.00 40.87 40.19 39.39 37.81 38.95 32.56 32.32 31.97 29.79 31.37 31.15 29.81 30.32 30.59
43.79 42.94 42.14 42.15 41.24 40.29 39.84 40.12 39.21 38.79 38.52 37.19 36.89 32.84 31.60 30.02 29.09 29.12 29.60 29.37 29.12 29.79
42.56 41.43 41.31 40.83 40.25 40.06 39.84 38.76 37.79 37.40 37.47 36.38 37.05 33.06 31.63 29.78 27.30 28.93 29.61 30.07 29.16 28.07
40.98 40.46 39.96 39.32 39.13 39.22 38.64 37.58 36.81 37.34 36.48 35.81 34.19 32.11 30.86 28.55 27.87 28.38 28.49 29.93 29.55 29.20
40.47 39.63 38.75 38.44 38.38 38.74 38.19 37.48 36.65 35.45 35.68 35.69 32.88 32.07 31.08 29.16 27.56 26.82 27.41 28.04 28.21 27.81
39.85 39.17 38.88 38.05 37.67 36.96 36.20 35.36 34.10 32.70 33.16 33.04 33.23 33.23 31.55 30.71 27.28 26.73 26.87 26.09 25.76 26.76

GFSNIL_sfc_wetblb_048.txt.gz
Wetbulb
49.32 48.86 48.22 47.85 47.20 45.57 44.31 43.27 42.81 42.38 42.03 40.55 39.88 38.45 38.41 37.54 37.72 36.14 35.92 35.33 35.43 36.17
46.70 46.70 45.48 45.82 45.90 45.03 43.95 43.16 41.36 39.91 40.44 39.74 38.40 39.15 37.49 36.40 35.70 35.27 35.13 34.81 34.40 34.26
48.48 47.71 46.72 46.11 44.98 43.97 43.42 42.16 41.53 40.67 39.95 38.39 38.32 38.74 37.08 36.16 35.67 34.86 34.12 35.04 33.57 33.34
46.35 47.66 47.79 45.91 44.63 42.78 43.00 42.71 41.09 39.61 38.71 38.31 37.95 37.89 36.78 35.35 35.23 34.60 34.10 33.84 33.04 32.73
47.07 48.00 46.25 44.71 44.05 44.03 42.75 41.69 40.37 39.87 38.84 39.16 37.93 36.79 35.54 35.67 35.31 34.59 33.74 33.43 32.31 32.11
47.78 46.53 45.54 43.84 43.48 43.24 40.82 39.57 38.53 38.90 38.48 38.51 37.73 36.37 35.93 35.77 35.33 34.49 33.07 31.75 30.78 30.05
47.09 45.73 43.72 43.33 40.30 39.49 38.84 38.00 37.52 38.51 38.95 38.65 37.90 37.39 37.79 37.29 35.47 32.72 31.96 32.16 31.17 30.53
46.39 43.72 42.63 41.06 39.81 39.05 39.35 38.33 38.16 38.97 38.54 38.87 38.47 38.01 36.57 34.57 32.42 31.23 30.60 30.90 30.75 30.25
42.68 42.25 41.42 40.34 39.09 39.73 38.97 38.23 38.80 38.43 38.12 37.19 37.49 35.96 35.76 33.38 30.60 30.58 29.34 27.91 28.45 28.46
42.03 40.77 40.22 39.61 38.94 37.86 37.75 37.41 37.36 36.50 36.28 36.15 36.24 35.41 35.37 34.35 29.52 28.46 27.82 27.24 27.70 27.93
39.73 38.76 38.94 38.69 38.22 37.69 37.77 36.74 36.11 35.41 35.44 34.96 36.01 35.14 35.21 33.44 27.84 26.94 27.19 28.03 28.55 26.01
38.28 38.02 38.18 38.05 37.38 36.90 35.47 35.46 35.06 35.18 33.83 33.05 33.41 35.22 34.62 32.14 26.42 26.23 27.39 29.10 28.52 27.06
38.94 38.96 37.88 36.83 35.62 35.46 34.89 33.91 33.65 32.77 32.77 33.71 31.91 34.15 34.81 32.45 25.76 25.78 27.20 27.57 27.02 29.25
39.13 36.84 35.68 34.35 33.97 33.21 32.61 31.74 30.48 30.43 30.50 30.34 31.02 30.33 34.35 33.99 27.24 26.71 26.66 26.27 25.81 25.68

GFSNIL_sfc_wetblb_054.txt.gz
Wetbulb
53.80 51.10 49.44 47.99 47.27 45.33 42.96 41.10 41.93 40.70 40.95 41.50 41.36 40.95 40.65 39.55 38.09 37.38 35.76 34.49 34.32 35.69
53.10 49.97 48.59 47.42 45.89 43.51 41.90 42.75 40.77 41.90 41.64 41.95 42.22 41.11 39.80 38.40 37.05 35.97 34.47 34.74 35.65 34.11
52.09 49.96 47.62 45.85 43.72 43.57 42.97 41.70 41.44 41.22 42.54 42.35 41.18 40.03 38.80 37.36 36.53 34.46 34.68 34.45 33.48 32.85
48.50 47.53 46.37 45.65 44.35 43.40 43.06 42.92 42.75 42.92 42.18 40.20 39.84 39.03 37.60 36.50 35.24 34.26 34.13 34.52 33.21 32.59
46.81 47.23 47.05 44.23 44.74 43.85 44.04 44.61 44.66 42.20 40.16 39.81 39.07 38.06 36.94 35.62 35.17 34.40 33.93 33.93 32.93 31.89
47.14 46.38 45.31 44.44 44.11 45.50 45.03 43.18 40.66 40.74 39.65 38.96 38.30 37.51 37.19 36.64 35.39 34.13 33.45 33.30 32.25 30.63
46.83 46.03 43.69 44.74 45.36 44.26 41.69 40.23 39.34 39.11 39.36 39.01 38.49 38.05 37.20 35.84 34.26 33.54 33.40 32.96 31.41 29.81
46.33 45.50 45.07 44.20 41.36 40.62 40.34 37.95 39.52 39.00 38.84 38.99 38.01 37.24 35.65 34.79 33.26 32.47 31.74 31.02 29.98 29.76
44.60 43.59 41.01 40.15 40.05 39.60 39.00 38.66 38.89 38.80 38.22 37.44 37.24 36.66 36.90 35.20 32.20 31.24 30.09 29.22 28.91 28.73
41.82 40.45 39.56 39.30 38.60 38.05 38.84 39.69 38.70 38.57 36.84 35.16 34.61 35.82 36.75 36.48 32.26 30.35 29.21 28.60 28.02 27.76
39.06 38.62 39.03 39.60 40.18 40.26 39.94 39.09 37.43 34.68 33.66 32.70 33.31 35.27 35.90 35.51 32.18 29.42 28.97 28.26 27.45 26.67
39.31 39.25 39.30 39.52 39.25 39.81 37.94 35.16 32.90 32.71 31.82 30.66 30.73 33.98 34.77 34.14 30.74 29.33 28.33 28.48 27.49 27.62
41.01 40.93 40.41 39.58 37.41 35.53 33.16 32.22 31.39 30.62 30.55 31.58 30.23 33.07 34.45 34.25 29.24 28.38 29.16 27.98 27.48 30.49
39.89 37.84 36.31 33.82 32.29 31.13 30.25 29.41 29.07 29.30 29.30 29.49 29.80 30.31 33.65 34.52 30.66 30.07 29.04 28.18 27.74 28.20

GFSNIL_sfc_wetblb_057.txt.gz
Wetbulb
56.14 56.66 56.26 54.14 51.75 51.99 51.98 51.13 49.61 48.29 46.94 45.64 45.32 43.21 42.25 42.18 41.15 41.42 44.02 43.26 42.85 42.57
56.49 56.65 55.11 52.13 52.46 53.62 52.71 48.41 46.28 45.62 45.77 45.28 44.94 43.51 41.97 41.46 40.20 40.61 42.18 42.85 42.49 42.00
57.27 57.11 55.34 53.42 53.00 50.63 48.74 46.59 44.53 45.35 45.80 45.03 44.33 44.26 43.20 41.01 40.13 39.73 42.03 42.01 41.51 41.46
57.41 57.13 54.51 52.30 49.84 47.86 44.93 44.93 44.35 44.81 44.86 45.27 42.68 41.39 40.53 39.79 39.76 40.92 41.38 40.99 40.84 40.58
56.62 54.08 52.19 49.66 46.92 45.34 43.96 45.17 45.65 45.80 43.59 41.50 40.53 40.33 39.19 39.83 41.12 40.73 40.35 40.55 40.33 39.73
52.09 51.04 49.09 47.28 45.76 45.79 45.69 45.59 45.62 42.72 41.35 42.06 41.26 41.49 42.59 42.36 41.57 41.17 40.88 40.96 40.22 39.82
49.24 48.51 47.60 46.98 46.06 45.69 46.25 44.09 42.01 41.71 41.11 41.55 41.19 41.00 42.43 41.62 41.62 41.49 40.81 40.65 40.35 40.22
47.87 46.58 46.20 46.43 45.54 42.91 42.44 41.89 41.75 41.32 40.98 41.18 40.99 41.26 41.19 41.77 41.70 41.00 40.55 40.46 39.88 39.79
45.83 45.02 43.03 42.41 41.89 41.83 41.60 40.44 40.31 40.32 39.86 40.19 39.70 38.36 37.60 38.37 41.36 40.57 39.44 39.29 39.75 38.90
42.23 41.46 41.35 40.29 39.94 39.05 39.53 42.17 41.81 40.17 40.03 39.53 41.89 37.18 36.99 36.55 40.33 40.11 39.86 39.39 38.68 37.87
39.95 39.38 41.33 41.45 41.86 41.86 41.53 41.03 41.68 40.45 41.27 40.17 39.39 35.73 35.85 35.38 39.56 39.63 39.12 38.84 38.35 37.84
41.14 41.17 41.59 40.67 40.55 41.19 41.02 40.33 40.15 39.19 38.71 38.35 38.55 35.33 34.48 34.90 38.20 37.64 37.61 37.96 37.78 37.31
42.84 41.52 40.78 39.71 39.25 40.22 39.63 37.80 37.52 37.06 37.55 36.32 36.61 35.52 34.48 34.90 37.18 36.32 36.44 37.50 37.18 33.31
38.68 38.50 38.74 38.21 38.14 37.62 37.08 36.41 36.19 35.25 36.32 36.28 36.13 36.48 34.67 34.45 35.54 36.49 35.95 35.80 35.91 36.17

GFSNIL_sfc_wetblb_060.txt.gz
Wetbulb
63.26 62.22 59.94 59.02 59.93 59.73 55.35 52.25 53.13 52.52 54.44 54.81 52.95 47.83 47.59 43.92 47.64 46.82 43.35 44.28 43.96 43.43
61.84 60.56 58.55 59.32 59.19 58.04 54.46 53.24 53.29 54.83 53.87 48.07 46.69 49.16 45.08 45.37 44.80 43.19 43.54 43.72 44.01 43.83
60.39 60.42 60.01 58.61 58.80 56.14 53.96 55.46 53.86 51.61 45.88 47.68 47.01 46.79 44.80 43.23 42.30 41.73 41.78 42.20 44.25 45.18
59.88 60.07 59.96 58.79 56.63 54.53 53.83 52.57 51.13 46.43 46.50 45.70 46.35 43.93 42.56 42.33 40.90 40.33 42.31 44.50 44.34 44.37
59.76 58.95 58.69 57.17 54.28 52.91 49.87 47.19 46.40 45.37 46.18 45.51 43.27 41.89 41.17 40.74 41.46 43.45 43.90 44.12 44.23 43.67
57.70 56.52 54.13 51.01 47.85 46.11 45.47 45.01 45.29 46.33 44.77 41.89 42.03 41.19 41.23 42.49 44.18 44.95 44.46 44.33 43.98 43.32
51.55 50.06 48.23 46.90 46.33 45.79 46.74 45.89 46.18 43.59 42.67 41.77 41.70 42.21 43.03 43.54 44.65 44.82 44.48 44.32 43.83 43.58
49.12 48.30 47.11 46.71 46.12 46.55 46.21 44.24 43.98 42.17 42.15 42.40 42.36 42.30 43.02 43.47 44.10 44.01 43.94 44.08 43.88 44.13
47.32 46.76 45.81 45.89 46.42 47.05 45.62 44.27 42.35 41.35 40.97 41.16 41.11 39.32 38.22 39.40 44.14 43.83 43.17 42.78 43.52 43.86
48.43 47.48 47.35 46.12 43.57 40.94 41.46 41.00 40.65 41.12 41.51 41.88 42.12 39.05 39.02 37.65 41.85 42.63 43.07 43.01 42.57 42.06
45.56 43.82 43.63 43.79 42.95 42.25 42.18 41.75 42.67 43.00 41.93 43.12 44.06 37.59 36.60 35.40 40.68 41.46 41.62 41.95 42.07 41.67
46.05 44.50 43.58 42.85 42.10 42.62 42.59 42.28 41.35 43.43 42.56 42.25 42.44 37.14 35.77 35.63 40.23 40.00 40.44 41.21 41.62 41.35
46.24 45.10 42.56 40.68 40.99 44.16 44.35 42.67 42.31 40.68 41.14 38.87 40.08 37.31 36.05 36.47 38.81 38.01 39.00 39.81 39.98 36.68
42.09 42.54 42.89 42.08 42.01 42.07 41.68 40.48 39.84 38.78 40.14 40.12 39.57 39.65 35.93 35.17 36.36 36.29 36.15 36.49 37.61 39.49

GFSNIL_sfc_wetblb_063.txt.gz
Wetbulb
65.62 64.99 64.80 61.16 59.68 60.52 60.34 60.41 60.61 59.14 55.17 52.95 53.10 52.83 52.78 49.67 45.79 46.85 45.59 43.95 43.98 43.69
66.13 65.32 64.94 63.76 62.62 59.77 61.12 58.35 56.01 54.00 52.74 51.89 52.46 48.58 47.93 45.15 46.08 45.20 43.64 43.82 44.22 42.72
64.62 63.62 63.47 62.79 61.10 60.37 59.97 57.33 54.03 52.53 52.26 48.41 47.31 45.91 46.62 45.57 43.35 42.24 43.02 42.81 41.92 43.47
62.62 61.47 60.85 60.60 59.55 59.59 59.25 57.56 54.40 53.05 47.17 46.17 45.44 46.70 46.22 43.59 41.83 41.18 41.16 41.48 43.64 44.62
61.51 60.64 59.33 58.95 58.67 58.11 54.73 51.27 49.12 47.22 46.43 46.60 46.15 44.65 42.75 41.26 41.57 40.62 40.93 43.06 44.81 44.96
59.48 58.54 54.28 50.86 49.55 47.77 47.21 46.38 46.00 46.45 45.86 45.65 43.38 41.68 41.89 41.88 41.95 42.91 44.37 44.98 45.33 44.84
52.67 50.68 48.90 47.65 46.70 45.90 46.03 46.26 46.03 45.58 43.17 43.29 42.30 42.07 42.07 42.60 43.68 44.32 44.05 45.57 45.35 44.68
49.55 48.79 47.87 47.68 46.61 46.65 46.28 45.53 43.94 43.10 42.82 42.90 42.60 42.92 42.98 43.14 42.86 43.20 43.38 44.75 44.76 45.35
48.33 47.45 46.88 46.56 45.34 44.87 44.40 43.82 43.46 43.11 42.44 41.80 42.25 39.68 39.21 40.12 41.01 42.46 43.11 43.83 44.36 45.46
48.73 47.84 48.03 47.51 46.08 45.12 44.80 43.51 41.93 41.14 41.25 41.36 42.99 39.43 39.23 38.34 43.22 42.84 42.53 42.55 42.99 42.97
48.89 47.65 47.27 46.78 46.32 44.58 42.75 42.03 42.43 42.73 43.66 44.37 44.94 40.52 39.05 36.48 40.89 41.09 41.49 41.86 42.13 42.61
48.18 46.91 46.32 44.72 43.73 44.77 43.26 43.45 44.28 44.67 44.55 43.74 43.63 38.33 36.34 36.09 39.61 39.13 39.50 40.45 40.77 40.83
47.58 46.55 45.55 44.88 44.59 44.80 45.73 44.10 44.19 42.66 42.01 37.99 40.57 35.81 35.69 36.05 37.87 36.72 37.28 37.73 38.30 36.07
45.35 44.37 45.45 44.62 44.03 42.97 42.22 41.70 41.32 40.02 41.08 40.72 39.47 38.68 34.42 33.57 33.87 33.19 31.97 32.62 33.96 35.74

GFSNIL_sfc_wetblb_066.txt.gz
Wetbulb
62.95 63.04 61.91 61.64 61.01 59.84 59.59 59.23 58.82 57.57 56.32 55.43 53.86 53.35 52.06 49.20 46.12 45.87 46.50 44.58 43.18 43.35
63.65 62.87 62.78 62.86 61.49 59.89 59.75 59.66 58.99 57.56 54.67 52.41 52.38 51.74 48.10 45.87 44.96 45.22 43.85 42.98 43.00 42.66
63.65 63.95 63.67 62.77 61.25 60.47 59.68 56.69 55.09 53.00 52.37 51.52 48.65 46.29 45.79 45.96 44.05 43.19 42.66 42.82 42.56 42.05
64.08 62.66 61.49 60.07 59.45 59.26 58.20 57.13 55.09 53.15 50.15 47.50 45.27 46.04 44.72 43.79 41.85 40.99 41.38 41.68 41.38 41.01
62.44 60.74 59.77 57.94 57.44 57.00 54.83 54.14 51.89 49.10 46.61 46.02 45.79 45.62 42.89 41.76 41.70 40.77 40.53 40.98 41.39 42.46
59.60 57.96 52.80 51.22 50.15 49.18 48.78 47.83 46.95 46.49 45.88 45.51 44.37 42.70 42.26 41.83 41.89 41.75 41.85 42.72 43.23 43.03
51.20 49.70 47.87 47.72 47.81 46.59 46.88 46.55 46.02 45.67 44.12 42.88 42.60 42.19 42.23 42.40 42.47 42.83 43.78 43.80 43.38 43.72
49.12 47.92 47.43 46.45 46.91 46.39 46.14 45.71 43.98 43.49 42.99 42.40 42.26 42.42 42.36 43.01 43.04 42.43 42.25 42.66 43.54 42.83
47.59 47.32 46.30 46.79 44.97 44.28 43.78 43.14 42.77 42.15 42.00 41.94 42.60 40.03 39.98 40.71 41.41 41.21 40.97 40.43 41.52 41.96
47.84 46.50 46.03 45.78 44.37 43.41 42.94 43.24 42.52 41.48 41.64 41.18 41.77 39.14 39.40 38.36 40.44 40.17 39.33 37.97 38.23 39.13
48.03 46.68 45.98 45.79 45.34 44.23 42.77 41.13 41.16 41.25 41.63 42.11 43.62 39.66 39.32 37.80 38.23 37.03 37.17 37.17 37.15 36.59
47.18 46.07 45.85 43.80 42.49 42.49 42.42 42.41 42.39 43.29 42.90 42.28 38.61 36.64 35.36 35.28 35.58 35.74 34.80 36.68 35.88 34.86
46.96 45.53 44.28 43.80 43.42 43.61 43.73 43.45 43.40 41.31 39.74 37.06 34.44 34.29 33.66 33.46 30.92 29.58 28.96 29.76 31.16 32.19
45.89 44.97 44.92 44.41 44.06 43.13 40.36 39.79 36.59 36.03 36.59 36.97 35.25 32.26 31.81 31.21 27.74 26.22 26.16 26.59 26.68 27.56

GFSNIL_sfc_wetblb_069.txt.gz
Wetbulb
59.05 58.18 57.44 56.62 57.19 59.06 59.12 59.01 57.20 55.46 54.20 53.47 53.01 52.37 52.08 50.09 46.88 46.30 45.49 45.17 44.34 43.66
59.62 59.53 58.24 58.59 58.18 59.24 58.78 57.37 56.57 55.93 53.60 52.24 51.46 51.14 49.59 47.29 46.30 45.92 45.07 43.81 43.22 42.94
60.30 59.70 59.96 59.64 57.65 57.99 58.11 56.85 55.39 54.91 53.52 52.44 50.49 47.83 47.11 45.47 45.33 44.20 43.46 43.44 42.85 42.74
59.26 59.81 59.64 59.13 58.94 59.14 57.66 55.85 54.24 53.24 52.42 49.45 47.60 46.68 45.96 44.45 43.68 42.52 42.02 42.54 42.40 42.22
59.11 59.55 58.90 59.16 59.37 57.51 56.09 54.96 53.82 51.06 48.87 47.11 46.11 45.71 44.53 42.73 42.34 41.90 41.49 41.52 41.28 40.93
57.36 58.32 57.77 54.04 53.28 53.28 51.42 50.56 49.51 48.48 47.00 45.80 45.31 43.39 42.77 42.49 42.39 42.15 41.82 41.89 41.53 42.08
51.32 50.59 50.05 49.51 48.59 47.76 47.74 47.20 46.48 46.30 45.24 43.96 43.52 43.18 42.91 42.77 42.18 42.21 42.55 43.29 43.65 43.06
48.36 48.77 48.33 46.93 46.52 46.21 46.00 45.10 44.82 43.81 43.36 43.30 42.93 42.53 42.38 42.55 42.18 42.34 42.51 42.55 42.53 42.46
46.63 46.45 45.83 45.58 45.62 44.02 43.95 43.89 43.71 42.71 42.07 41.79 42.41 39.42 40.17 41.79 41.90 41.85 40.82 39.38 38.94 39.55
46.74 45.75 45.25 44.71 43.84 43.02 42.58 42.67 42.00 41.64 41.65 41.23 41.74 39.66 39.91 38.80 39.52 38.02 37.08 36.47 35.33 35.98
45.92 44.90 44.40 43.89 43.11 42.55 41.57 40.01 39.52 40.93 41.32 41.40 41.92 38.70 38.47 36.88 36.55 35.78 34.42 34.03 33.12 31.47
45.85 44.88 44.71 43.20 41.82 40.38 39.24 40.26 40.78 41.51 40.76 38.50 34.74 35.54 35.03 34.61 32.09 31.33 29.76 31.03 29.87 29.82
45.33 44.14 41.82 40.21 39.89 40.66 41.25 41.46 41.76 40.35 36.28 34.35 31.78 33.45 33.93 31.60 28.05 25.91 25.10 26.29 27.99 29.46
43.96 42.41 42.43 41.79 41.15 40.72 39.28 36.16 33.26 32.61 33.55 31.81 31.07 30.69 31.13 29.46 25.10 24.68 25.15 24.66 24.36 24.43

GFSNIL_sfc_wetblb_072.txt.gz
Wetbulb
57.15 56.95 56.00 55.10 55.75 55.72 56.49 58.44 60.07 59.48 57.60 55.52 55.34 53.03 52.14 52.05 49.25 48.55 48.10 47.50 46.09 45.88
57.37 57.70 57.27 56.40 54.82 56.31 57.35 58.27 56.76 57.16 56.06 55.40 53.75 52.63 51.40 49.27 47.70 47.86 46.40 45.99 45.09 44.72
57.02 57.72 58.35 56.22 55.37 56.28 56.24 55.86 56.40 54.82 53.32 53.02 52.76 51.08 49.98 47.90 46.56 46.27 45.33 45.07 44.15 43.40
57.75 58.16 58.16 57.10 57.00 57.63 57.34 57.32 57.77 55.98 53.80 53.10 52.21 50.19 48.06 46.51 45.48 44.98 43.88 43.42 43.17 42.63
58.16 58.49 58.12 58.20 58.37 58.77 57.58 56.78 55.20 54.46 53.11 51.27 49.77 48.44 46.42 44.83 44.54 43.31 42.62 42.45 42.66 42.46
58.72 58.78 58.69 58.75 57.84 55.55 54.46 55.62 52.81 51.07 49.65 48.37 47.03 45.66 44.73 44.15 43.57 43.13 42.97 42.75 41.64 41.58
55.01 55.32 56.54 55.52 54.17 53.25 53.17 50.28 49.34 49.79 48.02 46.06 44.29 44.11 43.71 43.96 43.09 42.72 42.50 42.58 42.64 43.02
49.67 49.81 48.89 48.87 48.51 48.21 47.93 47.77 47.93 45.22 44.05 43.94 43.83 43.79 43.46 43.14 42.21 42.11 42.24 43.20 43.29 42.67
47.90 47.66 47.19 46.29 45.57 45.21 45.01 44.96 44.33 43.53 43.26 42.49 43.11 39.41 40.20 41.51 42.00 42.30 41.40 39.85 39.26 37.53
47.30 46.09 45.37 45.08 44.49 43.65 43.23 43.34 42.58 42.15 42.32 41.58 41.56 39.58 39.94 39.37 41.08 39.56 37.73 33.84 32.48 33.35
46.35 45.17 44.75 44.22 43.67 42.91 42.52 41.77 41.59 41.34 41.41 41.73 41.76 38.96 38.56 36.80 37.13 33.00 31.63 30.07 29.41 27.90
45.47 44.21 43.99 42.90 41.88 40.90 40.39 40.85 41.13 41.70 41.62 38.91 38.59 37.45 36.05 34.11 30.32 28.72 27.37 28.22 27.93 27.41
45.18 44.62 43.05 41.82 40.91 39.58 40.20 40.89 41.67 40.37 36.50 34.34 32.51 34.29 33.61 30.60 26.58 24.67 24.41 25.52 25.99 27.69
43.67 41.63 40.87 40.46 39.94 39.35 38.16 36.52 33.16 31.65 31.33 29.84 30.23 30.35 30.87 29.33 24.98 24.74 24.71 24.03 23.53 23.75

GFSNIL_sfc_wetblb_075.txt.gz
Wetbulb
55.10 55.02 54.91 54.86 55.32 54.58 54.49 55.28 57.31 58.07 58.50 58.61 56.85 55.85 54.93 54.13 53.49 51.73 51.15 49.87 48.46 48.68
56.13 55.41 55.45 54.87 53.64 54.53 53.96 55.32 56.35 58.40 58.42 56.71 54.21 55.01 54.35 52.84 51.30 50.18 49.29 48.05 48.39 47.94
56.46 56.31 56.33 55.13 54.10 53.59 54.47 55.74 55.93 55.31 54.53 53.96 53.80 52.46 52.20 50.87 49.75 49.51 48.19 47.45 46.69 45.33
54.78 54.73 56.20 56.06 54.88 55.14 56.01 56.35 56.13 56.17 55.51 53.82 52.53 51.35 51.32 49.89 48.12 47.27 46.22 45.52 45.26 44.11
56.83 56.46 56.39 56.64 56.45 56.93 57.01 57.47 57.31 57.55 57.81 53.97 52.29 51.55 50.43 47.71 47.51 46.57 45.65 44.21 43.53 43.08
57.40 57.27 57.35 56.75 57.17 57.35 57.73 57.87 58.01 55.93 54.57 53.08 51.34 49.35 48.34 47.63 46.03 45.47 44.94 43.96 43.34 42.39
57.31 57.19 57.48 57.46 57.37 57.77 58.18 56.53 53.85 53.95 52.96 49.77 47.76 47.00 46.03 45.89 44.77 44.17 43.74 43.12 42.68 42.38
53.70 53.35 53.32 54.83 55.87 53.83 52.82 52.44 51.01 48.68 46.40 45.65 45.59 45.72 45.63 44.47 43.67 42.67 42.18 42.53 43.18 43.20
50.96 50.06 48.79 48.25 47.53 46.96 46.57 46.71 46.13 44.96 44.31 43.84 44.49 41.95 40.96 42.37 42.46 42.51 42.15 41.05 39.11 36.16
48.97 47.74 46.68 46.62 45.94 45.09 45.63 45.43 43.82 42.92 43.55 42.72 41.93 39.38 39.86 39.66 41.82 40.36 38.66 35.79 34.70 32.88
48.32 46.32 45.71 45.33 44.50 43.44 43.21 42.50 42.13 42.36 42.04 42.06 41.22 38.63 38.44 37.27 36.91 33.88 32.19 31.05 29.85 28.98
46.29 45.10 44.66 43.45 42.31 42.16 41.91 41.89 41.79 42.20 42.08 41.34 40.15 36.97 36.18 34.55 31.99 29.30 28.03 27.73 27.18 26.48
45.64 44.63 43.21 41.97 41.12 41.67 42.34 41.80 41.45 37.53 36.81 36.43 36.16 35.79 34.23 32.07 29.09 26.02 24.99 25.64 25.80 27.22
44.98 43.40 42.84 41.86 41.16 41.06 40.63 37.85 33.25 30.65 30.98 31.16 31.71 31.36 31.63 30.24 25.87 25.15 24.57 23.98 23.20 23.43

GFSNIL_sfc_wetblb_078.txt.gz
Wetbulb
52.48 53.11 53.17 52.46 52.41 52.23 52.34 52.65 54.20 55.39 56.16 56.54 56.48 55.89 55.07 55.05 54.35 53.66 52.70 52.21 51.35 50.09
54.01 52.96 52.42 53.13 52.97 53.04 52.92 53.56 53.42 54.63 55.93 55.33 55.21 55.12 54.24 54.98 54.10 53.25 53.54 52.35 51.38 49.17
53.04 53.62 53.19 53.03 52.93 53.13 53.64 53.87 54.34 54.97 55.22 54.48 54.09 54.23 54.43 54.86 53.74 52.08 52.10 51.45 50.36 49.59
53.29 54.01 54.72 55.05 55.07 54.56 54.47 54.44 55.44 56.11 56.22 55.58 55.04 54.38 53.67 53.81 51.54 50.60 50.24 49.19 49.12 48.61
55.25 55.58 55.67 55.95 56.26 56.52 55.37 55.46 55.72 56.16 56.08 55.67 54.96 53.43 52.69 51.48 49.86 49.48 47.89 47.67 47.37 45.98
55.32 55.54 55.56 55.42 55.73 55.61 55.58 55.49 56.04 56.50 56.08 56.04 53.49 52.05 51.65 51.05 49.14 48.66 48.37 46.99 46.46 45.78
55.55 55.94 55.60 54.11 53.96 55.07 55.63 55.98 56.14 56.28 54.82 52.83 51.20 50.48 49.43 48.50 47.06 46.82 47.11 46.97 46.30 44.27
55.60 56.09 55.46 54.25 54.31 54.21 54.45 55.45 54.87 52.20 50.19 48.56 48.00 47.24 47.02 46.46 45.18 44.35 44.64 44.59 44.14 43.11
54.05 54.22 54.03 52.60 51.69 51.69 50.77 50.23 49.79 48.76 47.91 46.52 45.30 40.55 41.62 43.86 44.51 44.57 43.25 39.74 36.76 35.84
51.30 50.29 49.27 48.54 47.64 47.09 46.03 45.63 44.38 44.54 44.31 43.44 43.04 41.09 40.94 40.61 43.11 41.72 38.76 35.44 33.34 32.43
49.55 47.96 47.06 46.68 45.79 44.00 43.98 43.41 43.04 42.68 42.85 42.37 40.59 38.57 37.99 36.97 36.32 33.82 32.76 32.21 31.18 30.42
48.39 46.61 46.03 44.29 43.04 42.70 42.27 42.09 42.07 42.54 42.13 40.63 38.15 36.29 35.17 34.09 31.69 29.95 28.98 28.83 28.97 28.25
47.35 46.14 43.84 42.24 41.89 42.60 42.57 41.29 38.53 37.08 38.27 36.85 35.79 35.13 34.18 31.97 29.60 27.24 26.37 26.49 27.07 27.48
44.84 43.36 42.56 41.77 42.08 41.58 37.23 34.35 32.42 30.74 31.12 31.54 32.23 32.51 32.63 31.64 28.92 27.24 26.07 24.62 23.53 24.02

GFSNIL_sfc_wetblb_081.txt.gz
Wetbulb
57.64 57.19 57.26 57.48 58.11 57.91 58.86 58.82 59.56 59.78 60.40 60.21 60.49 60.36 60.30 60.49 59.81 59.36 58.57 57.66 56.93 55.70
56.78 57.43 56.98 57.20 57.97 58.41 58.38 57.83 58.48 59.37 59.46 60.08 60.32 60.19 60.45 60.21 59.47 59.02 59.05 58.26 57.42 54.25
57.01 57.60 57.63 58.05 57.52 57.63 58.50 58.33 58.20 58.32 58.94 59.41 59.93 60.13 59.77 58.95 59.36 58.01 57.11 56.66 55.76 54.90
57.27 57.64 58.11 57.65 57.78 57.95 59.17 58.69 58.28 58.34 58.75 59.16 59.20 59.17 58.40 57.65 56.26 55.72 55.52 53.33 51.72 51.82
56.86 57.44 57.33 56.21 57.50 59.05 58.60 58.77 57.94 58.21 58.09 58.57 58.01 57.35 55.62 55.86 54.75 53.11 52.22 51.70 51.05 51.31
55.04 55.26 55.41 55.87 57.06 59.02 58.83 58.42 57.65 57.65 57.77 58.14 58.27 58.02 55.76 55.38 54.34 52.69 52.61 52.13 50.59 49.16
54.91 56.01 55.65 55.57 57.23 58.48 58.57 58.36 58.24 57.98 57.38 58.25 58.38 57.10 55.60 54.40 53.29 52.06 51.06 49.58 48.71 47.49
56.63 56.67 57.17 57.65 57.69 58.48 58.40 58.26 58.75 58.41 58.18 57.97 56.04 53.57 52.44 51.84 49.55 48.46 46.52 45.52 44.96 44.65
56.54 56.96 57.18 57.52 57.73 56.99 56.86 57.40 57.76 57.01 55.50 51.78 50.49 44.93 43.85 46.89 46.86 45.49 44.15 39.56 39.01 37.44
56.57 56.34 57.10 56.87 54.76 55.00 54.74 52.03 50.06 48.27 47.69 46.40 44.94 40.22 41.11 40.93 44.90 43.09 39.04 36.32 34.92 33.81
55.89 54.69 51.73 51.19 50.60 47.58 46.73 46.03 45.05 44.36 43.79 42.94 40.66 38.69 38.28 37.36 37.98 36.00 34.28 34.00 33.04 31.64
52.09 50.12 49.35 47.85 45.41 44.46 43.81 43.29 42.93 43.11 41.84 39.15 36.66 35.83 35.24 34.83 32.81 30.83 29.72 30.06 30.54 29.87
50.34 48.81 46.61 44.14 43.36 43.48 42.38 39.74 38.70 37.32 37.55 35.77 34.66 34.51 33.92 32.92 30.86 28.36 27.17 27.41 27.63 28.40
45.99 44.43 43.62 42.98 42.17 39.05 36.62 34.18 32.67 31.43 31.90 32.58 33.07 32.90 32.95 32.14 29.75 28.16 26.55 25.42 25.03 26.93

GFSNIL_sfc_wetblb_084.txt.gz
Wetbulb
60.40 59.35 58.41 57.46 56.63 59.49 60.07 60.79 61.50 62.25 62.61 63.02 63.03 62.98 63.27 63.10 62.84 62.73 62.19 61.76 61.51 61.22
60.47 60.66 60.94 60.49 60.10 60.75 61.93 60.97 62.08 62.70 62.68 62.88 63.17 63.44 63.36 62.37 62.20 62.87 62.82 62.59 62.16 60.84
60.29 60.66 60.93 61.32 61.00 61.53 62.13 62.03 61.83 62.10 62.32 62.36 62.56 62.47 62.40 62.13 62.54 62.13 62.60 62.49 61.13 59.88
60.50 60.33 60.95 61.40 61.52 61.51 62.50 61.81 61.39 61.34 61.28 60.91 60.75 61.34 61.62 62.04 62.00 61.41 61.25 60.91 58.58 58.97
61.06 60.84 60.68 61.24 61.88 62.54 61.83 61.92 61.08 60.92 60.75 60.34 60.32 60.73 60.69 60.70 61.16 59.75 58.73 56.88 56.37 54.79
60.61 60.54 61.08 61.13 61.60 61.52 61.46 61.33 61.17 60.66 60.26 59.66 60.04 59.82 60.53 60.63 59.95 59.03 56.69 57.83 54.89 53.90
60.12 60.26 60.47 60.75 60.50 60.35 60.43 60.07 60.29 60.36 59.92 59.90 59.62 59.37 59.60 59.39 58.83 58.04 57.17 56.09 54.98 53.16
59.47 59.79 59.55 59.84 60.05 59.31 59.30 60.04 60.26 60.15 60.25 60.62 59.87 59.84 60.18 59.70 58.09 57.52 55.73 51.94 50.16 48.11
59.20 59.14 59.19 59.48 59.38 59.14 59.22 59.53 59.93 59.51 60.09 60.45 60.17 49.27 45.25 52.09 54.53 50.66 47.17 41.93 40.51 38.94
59.11 58.94 59.22 59.38 59.45 59.17 59.31 59.24 59.02 59.96 59.75 57.47 52.56 41.26 40.88 42.35 46.52 43.83 39.84 37.16 36.47 34.75
59.11 58.97 59.20 59.17 59.04 59.15 57.93 56.18 52.20 47.91 46.36 45.22 41.08 38.47 38.30 37.55 38.06 36.09 35.50 35.01 34.06 32.70
58.95 58.67 58.25 56.79 55.47 52.65 48.09 45.96 44.56 44.20 42.21 39.38 36.93 36.02 35.47 35.06 33.29 31.63 31.20 31.54 31.79 31.88
56.88 55.18 54.17 49.88 45.97 44.51 43.08 40.41 38.96 37.08 37.07 35.39 34.85 34.80 34.46 33.64 31.39 29.32 29.12 29.45 29.31 29.99
52.47 49.04 46.06 43.69 42.00 39.55 37.06 35.21 33.52 32.11 32.40 33.09 33.46 33.40 33.56 33.00 30.68 29.00 27.62 26.96 26.82 28.30

GFSNIL_sfc_wetblb_087.txt.gz
Wetbulb
58.58 56.80 57.51 57.96 56.46 54.98 55.35 56.71 59.30 62.06 62.14 62.28 62.59 62.47 63.18 62.93 63.21 63.56 63.23 63.06 62.42 61.70
59.11 59.71 59.02 58.07 57.64 56.23 56.38 56.49 57.85 62.46 61.33 62.55 62.86 63.27 63.31 63.11 63.36 63.64 63.83 63.65 63.18 62.33
60.86 60.79 60.98 60.54 58.72 59.46 57.92 59.50 60.38 61.57 62.58 62.45 63.18 63.80 63.16 62.95 63.53 62.88 63.32 62.97 62.87 62.38
60.04 61.62 62.24 61.70 61.06 61.40 60.37 61.19 61.27 61.81 62.16 62.36 62.89 63.34 62.48 62.62 62.64 61.82 62.22 62.32 61.98 61.65
60.03 60.36 60.61 62.46 62.92 62.90 61.97 62.29 62.04 61.94 62.18 62.11 62.15 62.30 62.04 61.62 61.53 61.39 61.07 61.35 60.97 60.32
62.17 61.56 61.82 62.22 63.16 63.23 62.97 62.58 62.67 62.32 62.20 62.15 62.06 61.85 61.99 61.48 61.24 61.40 61.18 60.74 60.48 59.24
62.69 62.84 63.00 62.71 61.75 61.73 61.65 61.98 62.00 62.43 62.46 62.31 61.96 61.45 61.42 60.74 60.93 61.05 60.83 60.51 58.97 58.42
62.78 62.55 62.58 62.78 62.80 61.59 60.77 61.67 62.25 61.88 62.04 62.14 61.49 60.90 61.42 60.90 60.53 60.37 59.36 58.09 56.02 52.89
61.70 61.31 62.35 62.50 62.47 62.46 62.04 61.87 61.96 61.37 61.50 61.39 60.27 50.05 46.21 52.33 59.82 57.68 55.13 45.13 40.87 39.90
60.76 60.30 61.30 60.92 60.55 61.04 60.95 61.33 60.95 60.96 60.84 60.57 60.46 42.62 42.62 42.80 49.34 45.49 41.59 38.60 36.71 35.50
60.94 60.17 60.32 60.15 60.30 60.90 61.09 59.88 58.91 57.85 56.10 50.88 43.68 41.15 41.03 39.23 38.97 36.55 35.88 35.13 34.46 33.60
61.32 60.60 60.86 60.45 60.77 61.24 59.29 51.97 48.74 46.72 43.10 39.55 37.08 36.40 36.28 36.16 34.66 32.70 31.81 32.62 33.06 32.98
61.20 60.74 60.36 60.69 54.45 51.46 48.04 41.98 38.95 36.56 37.03 35.60 34.99 34.91 35.08 34.54 32.88 30.60 29.45 29.81 30.11 31.05
60.32 59.31 53.44 48.13 45.18 41.22 37.98 36.47 34.90 32.89 32.97 33.33 33.66 33.69 33.84 33.39 31.25 29.72 28.31 28.00 27.90 29.36

GFSNIL_sfc_wetblb_090.txt.gz
Wetbulb
56.00 55.18 55.16 54.43 54.55 54.78 54.97 55.66 57.06 57.63 58.04 58.16 59.08 59.46 59.14 58.89 58.93 58.90 58.49 57.95 57.92 57.42
57.36 56.08 55.65 55.45 55.79 55.51 55.64 56.19 56.62 57.57 57.87 58.65 58.99 59.25 59.03 58.55 58.85 58.92 59.33 59.22 59.16 58.68
58.08 57.29 57.08 57.36 55.59 55.59 55.53 55.61 56.04 56.87 57.70 57.88 58.58 59.40 59.21 58.66 58.94 59.07 59.50 59.83 59.42 58.67
58.45 58.00 57.02 57.34 57.67 56.60 56.07 55.70 55.62 56.27 56.72 57.96 58.27 58.63 59.10 59.31 58.97 59.15 58.84 59.17 58.26 58.24
58.67 58.87 58.43 57.63 57.67 58.12 56.83 56.38 55.94 56.14 56.06 57.04 58.60 58.77 58.46 58.59 58.89 58.35 57.91 57.89 57.45 57.75
58.88 59.06 59.05 59.06 59.04 58.65 58.08 57.34 57.00 56.42 56.24 57.72 58.26 58.37 58.84 58.84 58.27 58.35 58.24 57.67 57.30 57.29
58.24 58.99 59.16 59.95 60.17 60.20 59.20 58.76 57.95 57.58 58.16 58.09 58.63 59.25 59.22 58.95 57.99 57.54 57.63 57.59 57.45 56.99
59.21 59.60 59.30 59.53 59.72 60.41 60.43 59.86 59.45 59.13 58.79 58.90 59.05 59.16 58.51 58.38 57.65 57.10 56.22 56.01 54.99 48.14
60.80 60.55 59.58 59.36 59.62 59.76 59.71 59.76 59.72 58.99 58.85 58.35 59.05 50.26 47.20 52.53 56.14 55.59 53.58 46.56 40.57 39.22
60.31 60.24 60.28 60.62 60.21 59.51 58.67 58.93 58.59 58.61 58.63 58.21 57.80 42.40 42.57 42.07 49.97 46.23 42.23 39.67 37.71 36.33
59.80 59.83 59.87 59.75 59.44 59.34 59.29 58.50 57.96 57.90 57.40 48.99 42.21 38.91 38.42 38.01 38.79 36.72 36.54 36.65 35.24 33.74
59.73 59.19 58.89 58.54 58.31 58.25 57.93 57.73 52.00 46.76 44.00 39.58 37.14 37.05 37.08 36.79 34.94 33.80 33.73 33.83 33.62 33.22
60.21 59.33 58.13 57.62 56.66 50.24 45.29 40.71 38.70 36.49 36.33 35.68 35.14 35.66 36.64 35.24 33.22 31.14 30.61 30.19 30.48 31.26
54.94 53.80 49.56 45.17 43.02 41.26 38.03 35.54 33.83 32.54 32.69 32.89 33.41 34.00 34.62 34.19 31.87 30.64 29.22 28.61 28.00 29.28

GFSNIL_sfc_wetblb_093.txt.gz
Wetbulb
54.77 54.51 53.63 52.95 53.47 53.24 52.76 52.94 54.42 55.29 56.52 56.63 56.54 57.13 57.34 57.47 57.45 57.16 56.77 56.70 56.40 55.92
54.75 54.69 54.07 53.23 52.74 53.87 54.20 54.41 55.10 55.13 55.33 55.75 57.40 57.80 57.73 57.41 57.11 57.10 56.93 56.74 56.52 55.72
55.25 55.08 54.94 54.46 52.87 53.97 54.12 54.97 54.74 55.73 55.75 55.80 56.30 57.41 57.55 57.26 57.32 56.92 56.55 57.58 56.78 56.78
56.18 55.57 55.32 55.06 54.14 54.98 54.60 55.43 55.18 55.34 55.23 55.47 56.66 57.50 57.08 56.18 56.68 56.93 57.07 56.99 56.26 57.18
57.52 56.88 55.30 55.19 55.29 54.96 54.60 54.34 55.22 55.47 55.61 55.87 56.26 56.83 57.34 56.73 57.15 56.60 56.50 56.66 55.51 56.74
57.48 57.18 56.11 55.30 56.06 56.03 55.10 54.29 54.48 55.00 54.63 55.51 56.35 56.91 56.94 56.71 56.60 56.76 56.90 56.93 55.90 56.48
57.08 57.49 57.17 55.88 55.93 56.42 56.25 55.03 54.35 54.35 54.18 54.39 54.93 55.88 56.87 57.05 56.48 56.63 56.77 56.67 56.33 56.65
56.91 57.31 57.88 57.85 57.31 56.60 56.37 56.38 56.16 55.10 54.59 54.30 54.54 54.81 55.64 56.38 56.40 56.30 55.90 55.30 52.22 45.49
56.83 57.08 57.37 57.64 57.97 57.69 57.22 56.93 56.33 56.00 55.03 54.56 55.27 49.06 46.43 51.92 56.39 55.00 54.61 46.96 41.11 39.61
57.42 56.89 57.29 57.55 57.40 57.49 57.67 58.43 57.58 57.22 56.87 55.81 55.58 46.32 45.72 44.65 53.79 50.80 47.10 42.56 38.50 36.99
58.39 57.65 57.66 57.74 56.98 56.98 57.12 57.06 57.55 57.84 57.57 53.43 42.72 39.58 39.56 39.66 41.11 38.99 38.46 37.42 36.52 34.80
58.31 58.27 58.43 57.85 57.36 57.47 57.43 56.80 53.43 47.44 44.12 40.98 37.76 37.21 37.07 39.34 38.17 35.46 34.04 34.41 33.88 33.49
57.75 57.48 57.33 57.13 54.61 46.81 47.21 40.52 38.61 36.33 36.69 36.00 35.33 35.88 36.28 36.00 33.79 31.21 30.38 30.72 31.02 31.92
56.32 56.74 53.96 47.52 44.07 41.18 38.14 35.70 33.45 32.32 32.94 33.61 34.33 34.59 35.06 34.83 32.49 30.19 28.78 28.66 28.71 29.66

GFSNIL_sfc_wetblb_096.txt.gz
Wetbulb
52.11 52.74 53.11 53.37 53.26 53.01 53.30 54.04 54.16 54.28 54.57 54.33 54.78 54.92 55.93 55.56 55.30 56.23 55.31 54.69 55.06 55.01
53.22 53.12 53.42 53.19 53.49 53.15 52.80 53.87 53.38 54.07 54.37 55.30 54.75 55.14 55.85 55.36 55.33 56.17 56.09 55.53 55.78 55.40
53.72 53.54 53.97 53.56 51.97 52.66 52.42 53.77 53.87 54.10 54.81 55.66 55.12 55.56 55.94 55.61 55.87 56.01 55.98 56.19 55.44 55.24
54.03 54.52 54.12 53.51 53.26 53.17 53.59 53.21 54.59 53.99 54.38 54.61 55.23 56.01 55.70 55.39 56.28 55.96 55.44 55.70 55.56 55.49
54.79 54.78 54.43 53.99 53.40 54.26 53.68 54.12 54.60 54.58 53.97 54.05 54.30 54.46 55.47 55.92 56.26 56.04 55.16 55.85 55.76 55.64
55.53 54.72 54.28 54.40 54.47 53.83 54.39 53.82 54.08 54.36 53.78 53.80 54.05 54.48 55.10 56.01 56.24 56.07 55.93 56.18 55.54 55.46
56.82 56.15 55.23 54.95 54.89 54.55 54.07 53.63 53.60 53.99 53.93 53.89 54.19 54.39 54.65 55.43 55.62 56.16 56.49 56.54 55.95 56.03
56.67 57.51 57.18 55.98 55.16 55.31 54.19 53.82 53.78 53.36 53.35 53.50 53.61 54.13 54.41 55.20 54.73 55.41 55.20 54.55 54.45 53.20
56.15 57.16 57.31 56.61 55.69 55.45 55.29 54.78 53.82 53.13 52.87 52.34 52.93 47.24 44.63 49.79 54.45 54.26 54.10 53.47 43.01 40.21
55.69 55.38 56.20 57.25 56.57 55.58 55.20 55.56 54.73 54.24 53.72 52.96 52.85 44.75 44.08 43.24 53.33 53.79 53.23 48.84 41.28 38.37
56.01 55.57 55.36 55.72 56.37 56.84 56.86 55.78 55.57 54.69 54.90 54.97 54.04 44.43 43.38 41.73 47.29 40.94 39.90 40.41 39.93 37.72
56.52 55.81 55.79 55.57 56.08 56.71 57.07 56.87 56.78 56.79 55.79 55.29 41.91 38.53 39.62 41.23 37.98 34.68 33.81 34.56 35.00 34.76
57.56 57.11 56.39 56.08 55.77 56.21 56.19 53.82 46.25 41.38 39.90 38.86 37.30 37.32 38.56 38.87 34.84 32.08 30.94 31.30 31.74 32.28
49.05 53.23 55.46 56.01 51.21 44.56 42.04 41.02 38.72 37.04 35.43 34.08 34.86 35.63 36.58 36.85 35.55 32.25 30.48 30.09 29.77 30.62

GFSNIL_sfc_wetblb_099.txt.gz
Wetbulb
52.85 53.58 53.40 53.38 53.75 54.06 54.31 54.47 55.08 55.42 55.68 55.18 55.52 55.65 55.44 54.67 54.65 54.22 53.40 53.01 52.81 53.32
52.15 52.53 53.01 52.83 53.48 53.61 54.32 54.82 55.02 55.78 55.78 55.72 55.70 55.30 54.82 54.67 54.26 55.08 54.55 53.87 54.22 53.55
52.02 52.38 52.76 53.78 53.01 52.70 53.36 54.30 53.94 54.13 55.24 55.56 55.34 55.42 54.45 54.06 54.81 54.81 55.28 55.22 54.77 54.27
52.07 52.28 52.44 52.53 52.88 52.01 52.78 53.38 53.42 53.56 54.40 54.08 54.00 54.28 54.16 53.89 54.28 54.95 54.69 55.06 55.02 54.89
52.84 52.46 52.25 52.08 52.45 53.11 51.74 52.64 53.69 53.65 53.51 54.22 53.95 54.00 53.92 53.47 53.95 54.16 53.86 54.59 54.42 54.79
52.36 52.71 52.36 52.10 52.32 53.54 52.86 52.46 53.40 53.83 53.36 53.24 53.81 53.83 54.17 53.97 53.98 53.66 54.22 54.90 54.67 54.45
52.60 52.95 53.19 53.62 53.43 53.29 53.72 52.89 52.30 53.63 53.86 53.26 53.49 53.62 53.85 54.49 54.20 54.37 54.83 55.32 55.14 55.34
54.30 54.06 53.55 53.86 54.19 53.64 53.54 53.60 53.02 52.83 52.89 53.11 52.82 52.68 52.82 53.31 53.36 53.37 53.42 53.32 55.12 55.12
55.83 55.45 54.53 53.95 54.38 54.30 53.62 53.43 53.16 52.70 52.80 51.91 52.52 46.45 44.78 49.10 51.97 51.69 52.13 52.18 52.07 45.15
55.00 54.95 56.33 56.10 55.04 54.11 54.02 53.82 52.78 52.61 52.05 51.97 52.05 44.35 43.66 43.15 51.93 52.09 52.30 52.33 48.86 41.69
54.76 54.51 54.92 56.40 56.02 55.24 54.80 54.18 54.18 52.81 51.93 51.86 51.43 43.81 42.96 41.59 48.34 49.32 46.01 47.82 47.34 44.03
55.71 55.24 54.88 54.49 55.58 56.03 55.14 54.55 54.53 54.63 53.90 52.50 51.80 43.25 42.43 42.34 45.34 38.51 35.86 36.21 37.48 37.74
50.74 56.03 55.34 55.04 54.69 55.45 55.77 55.16 54.63 52.29 45.91 47.71 52.58 38.49 40.50 43.27 40.73 34.19 32.13 32.13 32.77 34.05
41.77 45.29 48.00 55.28 55.38 55.14 54.63 44.06 40.40 36.00 34.90 35.41 37.07 36.89 37.63 38.96 38.89 34.23 31.26 30.51 30.34 31.18

GFSNIL_sfc_wetblb_102.txt.gz
Wetbulb
52.08 53.01 52.89 53.27 53.93 54.50 54.72 55.23 56.79 57.39 55.20 55.06 55.85 55.05 54.70 54.39 53.62 53.27 52.85 52.48 52.79 53.20
52.25 52.65 52.74 52.73 53.63 54.30 55.12 55.23 55.73 56.55 55.45 55.79 55.67 55.18 54.63 53.63 53.88 53.68 53.21 52.29 52.66 53.06
51.83 51.72 51.92 52.00 52.18 53.88 54.82 55.24 55.21 55.17 55.11 55.20 55.42 54.98 54.90 54.56 54.66 53.53 53.55 53.79 53.20 53.49
51.15 51.50 51.77 51.96 52.36 52.50 54.37 54.48 54.68 55.28 55.08 54.78 54.78 55.16 54.78 54.35 54.07 53.77 53.54 54.33 54.19 54.04
51.41 51.52 51.24 51.70 52.02 52.66 52.02 54.35 54.51 54.47 55.00 55.35 54.96 54.90 54.27 53.84 53.94 53.41 53.43 53.78 53.94 54.06
51.18 51.31 51.09 51.14 51.42 51.85 51.67 52.15 53.19 54.00 54.05 53.97 54.21 54.21 54.37 53.88 53.84 53.69 53.63 54.11 54.11 54.15
51.56 51.32 51.35 51.28 51.16 51.47 51.61 52.27 52.07 53.28 53.47 53.56 53.77 53.82 53.80 53.84 53.63 53.43 53.46 53.39 53.58 54.06
51.85 52.16 51.91 51.29 51.05 51.24 51.29 51.65 52.93 52.33 52.37 52.79 52.84 53.27 53.43 53.78 53.43 53.01 52.92 53.28 53.39 53.76
53.80 52.28 51.84 51.89 51.70 51.12 52.27 52.33 52.39 52.21 52.30 51.51 52.42 46.29 44.96 49.58 52.76 52.61 52.47 52.00 52.37 52.69
54.90 54.10 52.84 52.45 52.52 52.98 52.33 52.64 52.46 52.37 52.27 52.21 52.37 43.70 44.01 43.64 51.86 51.54 51.70 51.92 50.94 46.51
55.18 55.16 55.51 54.11 53.76 53.76 53.67 52.85 52.24 52.21 52.40 52.19 51.96 43.59 42.64 41.32 49.19 49.37 49.16 50.13 49.95 47.98
53.84 54.43 54.68 54.90 54.82 54.45 53.66 53.32 53.32 52.84 52.10 51.47 51.23 42.80 42.38 41.97 47.61 47.14 43.19 41.78 43.00 45.55
44.53 48.07 51.22 54.35 54.51 55.24 54.80 53.67 53.15 52.35 50.14 47.47 50.88 43.61 42.41 42.71 48.76 43.05 34.88 33.46 34.20 35.74
37.22 39.77 41.20 44.21 51.19 53.55 53.85 48.53 40.31 34.52 33.57 33.72 34.50 35.24 36.64 38.97 46.61 40.67 32.42 31.42 31.06 32.20

GFSNIL_sfc_wetblb_105.txt.gz
Wetbulb
57.74 57.55 57.72 57.01 56.31 56.43 57.88 57.69 60.10 58.83 56.91 56.09 55.18 55.26 54.48 54.80 55.11 55.49 56.55 56.54 56.33 56.29
57.22 57.61 57.38 56.83 55.54 55.74 57.39 57.63 59.27 58.78 57.07 55.54 55.58 55.54 54.26 54.26 54.38 54.55 55.50 55.16 55.94 55.94
56.51 57.45 57.44 57.12 54.74 55.91 57.77 57.56 57.99 57.39 56.02 55.20 56.08 54.93 54.51 54.10 54.55 54.55 54.28 54.30 53.29 54.65
55.30 56.72 56.88 56.51 56.39 56.54 57.56 57.02 56.64 56.32 55.50 55.40 55.24 54.51 53.47 52.89 53.38 53.65 53.49 53.68 53.54 53.61
54.67 55.97 56.00 55.83 56.45 57.44 56.13 56.60 56.51 56.13 55.38 55.30 55.34 54.71 53.51 52.01 52.53 53.36 52.86 52.79 53.53 53.48
53.53 54.94 55.34 55.52 56.25 56.69 56.87 55.46 56.29 55.85 54.97 54.89 54.99 54.32 53.93 53.49 52.56 52.88 53.81 53.44 53.28 53.32
52.89 54.37 55.24 55.65 55.90 55.82 56.35 56.23 55.24 55.48 55.22 55.14 55.12 54.89 54.39 54.49 53.65 53.39 53.49 53.88 53.94 54.02
53.07 53.55 54.93 55.08 55.33 55.60 55.49 56.06 56.08 55.98 55.99 55.24 54.59 54.44 54.25 54.16 54.02 53.81 53.55 53.90 54.30 54.74
53.21 53.61 54.25 54.93 54.90 55.03 55.12 55.18 55.26 54.54 55.08 55.69 55.51 46.47 45.64 51.00 53.55 53.34 52.99 52.59 53.09 53.26
53.73 53.34 54.00 54.74 54.62 54.27 54.52 55.16 54.82 54.28 54.07 53.98 55.07 43.92 44.56 44.20 56.34 54.68 53.71 53.65 53.17 52.47
54.69 53.69 53.83 54.02 54.36 54.37 54.52 53.90 53.99 53.96 53.42 53.52 52.91 42.70 42.90 42.23 55.62 56.01 56.08 56.55 56.26 55.57
48.01 52.44 54.89 53.49 53.53 54.97 54.78 53.97 53.48 53.57 52.97 52.58 52.50 42.94 41.67 42.63 50.94 52.52 52.30 53.63 55.38 55.64
40.70 42.89 43.36 44.75 52.59 54.55 54.67 53.96 53.65 45.86 38.72 36.80 44.57 36.82 40.14 42.79 49.10 46.73 43.13 35.51 34.65 35.15
36.28 37.63 38.24 40.11 40.60 42.18 51.27 39.55 35.20 33.19 33.23 33.71 34.38 35.97 37.50 38.92 45.05 38.06 32.96 32.30 31.68 32.45

GFSNIL_sfc_wetblb_108.txt.gz
Wetbulb
62.71 63.60 62.75 62.00 60.44 59.59 59.54 61.33 60.16 58.91 59.56 57.72 57.55 57.68 57.47 56.98 57.02 57.66 57.13 56.45 56.61 58.01
61.25 62.91 62.20 61.97 61.24 60.11 60.49 60.43 60.99 58.59 57.65 57.31 56.81 56.36 55.55 55.89 56.22 56.90 56.96 57.07 57.61 58.17
61.01 62.30 62.24 61.51 58.46 59.38 59.27 60.38 59.95 60.00 58.05 56.83 55.87 55.74 55.23 54.72 55.31 55.63 56.54 56.81 56.39 55.78
60.52 61.37 61.04 60.12 58.46 58.44 59.94 59.90 59.75 60.45 58.26 56.54 55.67 55.53 54.62 54.11 54.48 54.58 55.23 55.57 54.72 54.74
59.05 60.50 58.77 58.58 57.80 58.57 58.76 59.49 59.63 58.13 56.91 55.53 55.51 55.13 53.81 53.56 53.82 53.84 53.99 54.56 53.88 53.52
56.76 58.12 57.51 58.02 58.08 58.12 58.59 59.22 58.99 58.36 56.76 55.89 55.51 54.42 54.14 53.82 53.74 53.84 54.16 54.32 53.89 53.58
55.66 56.77 57.57 57.84 57.72 58.00 57.78 57.51 57.31 56.70 57.70 57.15 56.45 55.67 54.77 53.60 52.73 52.96 53.64 53.88 53.70 53.72
55.40 56.23 57.69 57.27 57.38 57.67 57.26 57.26 58.31 57.17 56.92 57.51 56.42 55.80 55.06 54.05 53.37 52.48 52.79 53.84 53.44 53.96
54.61 54.80 55.81 57.04 56.96 56.88 56.55 56.94 57.27 56.37 56.19 56.04 55.93 46.16 45.61 51.15 53.64 52.96 52.59 52.82 53.21 53.35
55.17 54.50 55.13 55.76 55.93 56.06 56.21 56.98 56.64 56.71 56.64 55.85 55.75 44.00 44.56 44.52 55.19 53.55 53.13 53.31 53.13 52.39
54.46 54.96 55.66 55.43 55.23 55.93 56.35 56.12 56.48 56.54 56.20 55.80 55.72 42.72 43.63 42.73 55.25 53.67 53.66 53.52 53.15 52.65
46.79 50.46 53.70 54.01 54.89 56.20 56.08 56.49 57.13 56.43 55.55 54.91 54.19 40.87 41.54 43.01 53.07 56.01 55.55 56.15 56.30 55.65
41.34 42.46 42.70 43.90 46.17 52.59 55.52 54.68 52.77 41.66 39.57 37.99 43.61 36.68 39.61 42.24 50.38 49.17 44.26 38.81 38.53 35.13
36.65 37.59 38.43 39.31 39.75 42.16 44.22 37.84 34.68 33.05 33.71 34.52 34.70 36.42 37.15 39.22 47.87 39.80 33.88 32.70 32.10 32.90

GFSNIL_sfc_wetblb_111.txt.gz
Wetbulb
63.15 63.56 64.65 64.68 63.84 62.75 62.17 62.57 61.45 60.67 60.14 59.50 59.44 59.64 58.32 57.46 57.18 56.92 56.55 56.57 56.54 56.66
62.52 62.70 63.33 65.29 65.10 63.31 62.50 62.21 62.14 61.38 60.72 60.13 58.95 59.28 58.12 57.20 56.60 56.78 56.71 57.16 57.18 56.42
60.53 63.26 63.66 64.85 63.13 62.66 61.55 61.92 61.01 59.77 59.13 58.23 57.46 57.39 57.21 57.04 57.27 56.44 56.82 56.88 56.23 56.48
59.33 61.70 62.93 63.35 62.62 61.94 61.50 61.30 60.94 61.22 59.53 57.93 56.96 56.37 55.67 55.81 56.07 55.99 56.05 56.41 55.73 55.71
58.61 60.51 61.87 61.92 60.75 61.19 60.90 61.32 60.92 60.79 59.05 57.70 56.42 55.95 54.84 54.12 54.58 54.68 54.88 55.47 55.67 55.27
57.40 59.54 60.29 60.29 59.71 59.50 60.58 59.60 60.11 58.90 58.87 57.15 56.27 55.33 55.16 54.70 54.13 54.40 54.96 55.07 54.77 54.72
57.63 58.87 58.96 58.91 59.23 58.42 59.82 58.94 58.59 58.26 58.29 57.04 56.25 55.10 54.46 54.07 53.75 53.84 54.26 54.83 54.66 54.08
56.73 57.73 58.79 57.98 58.38 57.87 58.74 58.99 58.16 57.45 57.49 57.91 56.92 56.09 55.13 54.35 53.72 53.16 53.27 53.69 54.02 53.99
56.01 56.88 58.19 57.66 57.29 57.16 58.02 58.91 58.36 57.03 56.95 56.70 56.58 45.86 45.78 51.76 53.66 52.98 52.54 52.28 52.90 53.17
55.02 55.72 56.73 56.54 56.73 56.96 56.75 57.71 57.85 58.34 58.00 57.28 58.04 44.62 44.19 44.21 55.36 53.51 52.98 52.81 52.92 52.35
55.02 55.02 55.33 55.84 55.95 56.38 57.07 56.45 56.70 56.78 57.01 57.68 57.14 42.91 43.09 42.28 55.39 54.49 54.51 53.72 54.16 53.55
47.78 51.78 55.22 54.86 55.89 56.51 56.32 56.39 56.09 56.50 56.83 56.64 49.93 38.84 40.73 44.68 54.39 53.72 53.25 53.46 53.90 53.55
40.71 43.02 43.53 44.67 47.51 50.19 56.06 52.95 44.92 40.28 38.83 36.01 42.98 35.96 37.63 43.55 51.90 48.08 41.03 36.75 35.19 34.76
35.62 37.47 38.80 40.00 40.71 42.21 39.27 36.43 34.67 32.82 32.49 32.90 33.81 35.50 36.92 38.58 49.27 42.17 34.43 33.29 32.32 33.15

GFSNIL_sfc_wetblb_114.txt.gz
Wetbulb
64.28 62.86 62.97 63.83 63.92 62.01 61.53 61.75 62.75 62.52 61.84 60.63 60.22 59.23 58.71 58.06 57.40 56.92 56.21 56.11 56.45 57.11
62.05 62.60 62.20 63.84 63.38 62.61 62.23 61.91 62.27 62.00 60.36 60.14 59.72 59.07 58.24 57.31 56.91 56.71 56.41 56.54 56.80 56.80
60.61 61.77 62.51 63.27 62.06 62.34 61.82 61.19 61.20 60.36 59.44 58.74 58.65 58.71 57.76 57.01 56.93 56.25 56.45 56.65 56.41 56.19
60.01 61.02 61.89 62.22 61.79 61.46 61.36 60.96 60.76 60.04 59.36 58.81 57.80 57.99 57.15 56.71 56.37 55.79 55.87 56.21 56.13 55.85
59.86 60.10 60.83 60.98 61.05 60.73 60.11 60.66 60.61 59.47 58.46 57.52 56.77 56.73 56.29 55.83 56.05 55.59 55.21 55.57 55.71 55.49
58.08 58.82 59.32 59.89 59.45 59.84 59.78 59.69 58.85 59.73 58.26 57.03 56.53 55.81 55.61 55.47 55.19 55.59 55.81 55.79 55.37 55.33
56.70 57.86 58.55 58.74 58.68 59.12 59.12 58.36 58.12 59.21 58.02 56.80 56.07 55.49 55.05 54.74 54.18 54.63 54.95 55.35 55.83 55.63
57.05 57.59 58.55 57.40 57.57 58.51 58.27 57.86 57.56 57.71 57.07 56.65 56.11 55.45 54.82 54.44 53.88 53.52 53.76 54.30 54.54 54.77
56.76 56.83 57.16 56.88 57.11 57.47 57.30 57.31 56.81 56.10 56.69 56.18 56.01 45.73 46.11 51.18 53.34 53.24 52.91 52.35 52.79 52.55
55.97 56.23 56.49 56.80 56.49 56.50 56.29 56.83 56.41 55.68 55.87 55.34 55.31 44.54 44.46 45.37 53.80 52.65 52.48 52.15 52.12 51.59
54.89 55.43 56.45 56.26 55.78 55.86 56.25 56.14 56.22 55.83 56.04 55.68 51.08 42.31 42.85 42.49 54.21 52.88 52.21 52.21 52.23 51.97
43.42 54.25 55.33 55.04 55.25 55.64 55.47 55.47 53.44 50.31 47.59 46.70 39.77 37.76 40.31 44.65 52.22 52.52 51.03 50.10 43.19 49.69
38.05 42.08 46.12 48.97 50.91 50.08 50.49 44.01 39.46 36.30 35.61 35.37 37.95 36.13 38.81 42.67 51.32 43.65 37.28 35.61 35.28 34.90
34.33 36.32 37.88 39.31 41.20 41.12 38.25 35.20 32.64 31.15 31.17 31.97 33.12 34.58 37.55 39.69 46.33 37.96 33.42 32.50 32.10 32.67

GFSNIL_sfc_wetblb_117.txt.gz
Wetbulb
56.16 61.81 61.20 61.45 62.00 61.01 61.43 62.52 63.24 62.71 61.92 60.91 59.92 59.39 59.16 58.69 58.21 57.62 57.03 57.07 56.57 56.49
54.51 59.32 61.70 61.62 62.11 61.99 62.97 62.79 62.53 62.30 61.34 60.52 59.73 59.13 58.77 58.15 57.65 57.21 56.77 56.41 56.57 56.93
51.41 54.28 61.52 60.65 59.98 61.33 62.19 62.15 61.95 61.65 60.87 60.23 59.71 59.07 58.35 57.65 57.43 56.77 56.57 56.41 56.31 56.55
47.47 52.58 60.04 59.54 59.55 60.71 61.56 61.30 61.25 60.53 59.51 59.01 58.77 58.33 57.63 57.11 56.89 56.27 56.07 56.23 56.21 55.97
47.25 57.69 58.92 59.13 59.47 61.29 60.76 60.67 60.20 59.00 58.80 58.35 57.95 57.89 57.15 56.15 56.21 55.55 55.39 55.65 55.83 55.67
46.22 58.26 58.36 58.81 59.02 60.41 59.86 60.18 59.92 58.85 58.56 58.01 57.27 56.85 56.87 56.39 56.05 55.79 55.77 55.67 55.67 55.56
44.75 56.77 58.04 58.73 57.95 59.42 59.42 58.85 58.69 58.63 58.25 57.27 56.63 56.45 56.19 55.87 55.65 55.79 55.71 55.77 55.77 55.65
45.22 55.61 57.64 58.11 58.38 58.75 58.63 57.79 58.09 58.59 57.44 56.75 56.17 55.81 55.31 55.17 54.65 54.53 54.32 54.89 55.51 55.73
48.04 55.50 56.73 57.35 57.49 57.59 57.05 56.85 56.98 56.71 56.31 55.51 55.85 46.42 46.24 51.72 54.01 53.71 53.37 52.87 53.17 53.31
40.74 56.27 56.85 57.12 56.96 56.91 56.29 56.25 55.45 55.99 55.79 55.01 55.34 44.06 44.61 45.33 53.62 52.95 52.74 52.48 51.99 51.02
37.89 45.10 56.41 56.37 56.09 56.33 56.23 55.57 54.92 54.84 55.24 53.95 47.23 42.61 42.97 42.97 52.79 52.08 52.07 52.19 52.23 51.50
36.28 38.71 53.97 55.35 55.35 55.81 55.75 55.02 50.70 50.95 48.58 44.74 40.84 38.56 42.07 45.69 51.97 50.88 48.19 45.75 43.28 51.05
35.35 35.67 38.01 50.97 54.77 54.32 48.48 41.85 39.66 35.73 35.52 36.23 37.89 36.93 39.88 46.31 49.86 41.19 36.85 34.50 34.48 34.43
33.29 34.55 34.37 38.09 45.01 42.17 37.60 34.72 32.25 30.93 31.17 31.98 33.20 35.46 39.22 41.70 44.36 37.11 33.17 32.27 31.87 32.64

GFSNIL_sfc_wetblb_120.txt.gz
Wetbulb
49.52 50.54 54.02 59.92 60.82 61.04 61.28 61.64 62.53 62.18 62.40 61.99 61.24 60.30 59.86 59.26 58.81 58.73 58.15 57.61 57.73 57.31
46.12 47.61 50.82 53.41 60.86 61.49 61.42 61.22 61.87 62.84 62.30 61.26 60.30 59.88 59.31 58.83 58.18 57.91 57.65 57.71 57.39 56.89
44.31 45.89 48.08 50.46 53.92 61.03 61.43 61.17 61.44 62.17 61.90 60.89 60.00 59.40 58.83 58.37 58.21 57.39 57.29 57.11 56.57 56.73
42.50 43.83 47.22 48.36 52.42 60.00 61.13 61.64 61.31 62.02 61.40 60.41 59.59 59.11 58.39 57.81 57.45 56.99 56.65 56.33 56.03 56.05
41.57 43.08 45.60 48.77 55.57 60.02 60.18 60.84 61.29 61.99 60.96 60.03 59.35 58.69 57.83 57.01 56.97 56.47 55.67 55.79 55.81 55.61
40.90 42.19 44.27 46.76 58.17 59.43 59.70 59.53 61.02 61.06 59.57 58.98 58.49 57.73 57.69 57.03 56.43 56.31 56.07 55.77 55.61 55.69
39.91 41.79 43.51 46.88 55.39 59.21 59.73 59.29 59.75 59.38 58.93 58.27 57.84 57.40 57.17 56.61 55.99 55.79 55.77 55.73 56.01 55.91
39.34 40.87 42.94 48.09 54.23 58.34 58.66 59.39 59.54 58.56 58.09 57.67 56.85 56.83 56.39 56.17 55.73 55.39 55.07 55.35 55.53 55.95
38.19 39.60 41.89 44.77 54.86 57.63 57.57 58.84 58.81 57.61 56.77 56.13 55.91 46.04 46.58 52.51 55.07 54.75 54.22 54.02 54.53 55.05
36.54 37.52 39.93 42.10 55.04 56.91 57.25 57.13 57.25 56.93 55.97 55.19 55.20 44.58 44.77 45.13 54.35 53.68 53.50 53.02 52.69 51.72
34.34 35.62 38.40 40.86 47.60 56.67 56.67 55.85 55.93 55.41 55.33 54.77 50.54 42.95 43.13 42.59 53.24 52.60 52.45 52.42 52.47 51.97
32.39 33.91 36.75 37.77 40.57 56.53 55.87 55.27 55.29 54.51 52.75 49.62 44.00 40.78 41.50 46.40 51.23 50.58 47.59 45.88 43.20 50.99
31.32 32.30 34.39 35.54 37.11 55.11 52.36 44.42 41.71 37.77 38.34 38.52 40.04 38.37 40.96 47.36 48.17 40.99 36.69 35.07 35.58 34.84
30.14 30.84 33.54 34.58 35.17 40.44 38.80 36.41 34.29 32.26 32.32 32.98 34.43 36.66 39.67 42.41 44.68 38.01 33.57 32.49 32.12 33.06

GFSNIL_sfc_wetblb_123.txt.gz
Wetbulb
46.70 47.99 50.01 53.48 57.32 59.99 61.14 61.50 62.58 62.28 62.65 62.72 62.09 60.69 60.75 60.43 60.17 59.43 58.85 57.89 57.85 57.63
43.95 44.17 45.19 47.64 50.43 52.65 60.47 61.53 61.31 61.49 62.38 62.49 61.85 61.24 60.43 60.04 59.30 59.04 58.67 58.15 57.87 57.71
41.76 42.61 43.53 45.39 47.65 50.17 53.10 60.29 60.41 60.76 61.39 61.77 61.55 61.07 60.31 59.79 59.19 58.40 58.18 58.04 57.48 57.35
40.43 41.32 42.27 43.56 45.95 48.20 51.33 54.42 60.77 60.51 60.65 61.06 60.67 60.30 59.50 59.43 58.32 57.90 57.42 57.18 56.78 56.55
39.91 40.93 41.28 42.69 44.66 47.95 50.86 55.01 59.22 60.79 60.51 61.20 60.20 59.72 58.98 58.42 57.70 57.36 56.56 56.16 55.97 55.94
38.78 39.51 39.83 41.01 43.26 46.59 48.61 57.11 58.51 60.78 60.72 60.62 60.10 59.36 59.03 58.43 57.26 57.16 56.62 56.24 55.98 55.68
37.20 37.79 38.71 40.31 42.55 45.84 49.52 57.18 59.36 60.18 60.55 60.07 59.79 59.23 58.48 57.74 56.88 56.66 56.36 56.16 56.20 55.96
36.52 37.11 38.12 39.78 41.93 44.33 48.71 56.45 59.23 59.54 60.12 59.57 58.89 58.24 57.60 57.30 56.38 55.92 55.47 55.62 55.66 55.94
34.63 35.65 36.44 38.59 40.75 43.21 45.79 55.56 58.55 58.93 58.73 57.98 57.70 47.35 47.17 52.99 55.70 55.48 54.85 54.23 54.49 55.00
33.49 33.91 34.99 36.79 39.21 41.32 43.64 54.35 57.73 58.29 58.25 57.22 57.35 44.99 45.54 45.90 55.88 54.97 54.48 54.37 53.89 53.42
31.36 32.01 33.79 35.60 37.50 39.24 42.46 50.21 56.88 57.32 57.12 56.58 54.99 43.91 43.72 43.72 54.53 54.19 53.95 53.57 53.59 52.97
29.73 30.76 32.25 33.96 35.09 37.43 40.46 44.80 56.32 56.58 55.75 54.73 49.38 42.09 41.91 47.17 52.68 51.63 49.43 48.87 49.21 51.98
29.02 30.01 30.71 32.06 34.12 35.83 38.99 48.20 44.29 39.46 43.71 44.07 45.41 40.44 41.37 48.18 48.52 42.81 38.53 36.56 37.10 35.50
28.66 29.44 30.59 31.10 33.32 34.09 35.05 35.99 35.18 33.89 33.75 34.59 37.45 40.36 41.91 42.82 45.76 39.85 35.26 34.05 33.15 33.53